DL9MFL-6 Weather Reports


time (UTC)temp
C
wind
direction
speed
KPH
gust
KPH
rain 1hr
cm
rain 24hr
cm
rain mn
cm
humidity
%
barometer
mb
20260906085429 17 109 3.2 14.5 0.00 0.15 0.00 69 1025.5
20260906085329 17 78 3.2 14.5 0.00 0.15 0.00 69 1025.5
20260906085255 17 80 3.2 14.5 0.00 0.15 0.00 70 1025.5
20260906085229 17 110 3.2 14.5 0.00 0.15 0.00 70 1025.5
20260906085130 17 114 3.2 14.5 0.00 0.15 0.00 68 1025.5
20260906085030 17 110 3.2 14.5 0.00 0.15 0.00 69 1025.5
20260906084926 17 121 3.2 14.5 0.00 0.15 0.00 70 1025.5
20260906084824 17 135 3.2 14.5 0.00 0.15 0.00 71 1025.5
20260906084756 17 109 3.2 11.3 0.00 0.15 0.00 70 1025.5
20260906084724 17 95 3.2 11.3 0.00 0.15 0.00 70 1025.6
20260906084625 17 93 3.2 11.3 0.00 0.15 0.00 70 1025.6
20260906084523 17 84 4.8 16.1 0.00 0.15 0.00 70 1025.6
20260906084518 17 85 4.8 16.1 0.00 0.15 0.00 69 1025.5
20260906084510 17 100 4.8 16.1 0.00 0.15 0.00 70 1025.6
20260906084506 17 81 4.8 16.1 0.00 0.15 0.00 70 1025.5
20260906084218 17 71 4.8 16.1 0.00 0.15 0.00 69 1025.5
20260906084118 17 87 4.8 16.1 0.00 0.15 0.00 71 1025.6
20260906084018 16 80 4.8 16.1 0.00 0.15 0.00 71 1025.5
20260906083912 16 112 4.8 16.1 0.00 0.15 0.00 71 1025.5
20260906083812 16 92 4.8 16.1 0.00 0.15 0.00 71 1025.6
20260906083755 16 155 4.8 16.1 0.00 0.15 0.00 71 1025.6
20260906083712 16 103 4.8 16.1 0.00 0.15 0.00 71 1025.6
20260906083612 16 112 4.8 16.1 0.00 0.15 0.00 71 1025.6
20260906083512 16 117 4.8 12.9 0.00 0.15 0.00 73 1025.6
20260906083406 16 76 3.2 12.9 0.00 0.15 0.00 73 1025.6
20260906083306 16 86 4.8 12.9 0.00 0.15 0.00 74 1025.6
20260906083255 16 85 4.8 14.5 0.00 0.15 0.00 74 1025.6
20260906083206 16 76 3.2 14.5 0.00 0.15 0.00 74 1025.6
20260906083105 16 82 3.2 14.5 0.00 0.15 0.00 74 1025.5
20260906083005 16 34 3.2 14.5 0.00 0.15 0.00 74 1025.6
20260906082902 16 100 3.2 14.5 0.00 0.15 0.00 73 1025.6
20260906082802 16 68 3.2 14.5 0.00 0.15 0.00 74 1025.5
20260906082755 16 68 3.2 14.5 0.00 0.15 0.00 74 1025.5
20260906082701 16 74 3.2 14.5 0.00 0.15 0.00 73 1025.6
20260906082602 16 74 3.2 14.5 0.00 0.15 0.00 72 1025.6
20260906082504 16 85 3.2 14.5 0.00 0.15 0.00 73 1025.6
20260906082402 16 111 3.2 14.5 0.00 0.15 0.00 73 1025.6
20260906082305 16 67 3.2 9.7 0.00 0.15 0.00 72 1025.6
20260906082255 16 83 3.2 9.7 0.00 0.15 0.00 72 1025.6
20260906082201 16 130 3.2 9.7 0.00 0.15 0.00 73 1025.5
20260906082101 16 99 3.2 9.7 0.00 0.15 0.00 74 1025.5
20260906082001 16 80 3.2 9.7 0.00 0.18 0.00 74 1025.6
20260906081902 16 77 3.2 9.7 0.00 0.18 0.00 73 1025.5
20260906081801 16 74 3.2 9.7 0.00 0.20 0.00 74 1025.5
20260906081756 16 61 3.2 9.7 0.00 0.20 0.00 74 1025.5
20260906081701 16 98 3.2 11.3 0.00 0.23 0.00 74 1025.5
20260906081601 16 144 3.2 11.3 0.00 0.23 0.00 75 1025.6
20260906081501 16 112 3.2 11.3 0.00 0.23 0.00 74 1025.6
20260906081401 15 84 3.2 11.3 0.00 0.25 0.00 76 1025.5
20260906081301 15 126 3.2 11.3 0.00 0.28 0.00 73 1025.5
20260906081254 15 126 3.2 11.3 0.00 0.28 0.00 73 1025.5
20260906081202 15 68 3.2 11.3 0.00 0.30 0.00 74 1025.5
20260906081101 15 102 3.2 11.3 0.00 0.30 0.00 74 1025.5
20260906081001 15 96 3.2 11.3 0.00 0.33 0.00 75 1025.4
20260906080901 15 101 3.2 11.3 0.00 0.33 0.00 75 1025.4
20260906080801 15 86 3.2 11.3 0.00 0.33 0.00 75 1025.4
20260906080752 15 86 3.2 11.3 0.00 0.33 0.00 75 1025.4
20260906080701 15 94 3.2 11.3 0.00 0.33 0.00 76 1025.4
20260906080600 15 127 3.2 11.3 0.00 0.33 0.00 75 1025.4
20260906080500 15 85 3.2 11.3 0.00 0.33 0.00 74 1025.4
20260906080401 15 108 4.8 12.9 0.00 0.33 0.00 75 1025.4
20260906080300 15 103 4.8 12.9 0.00 0.33 0.00 75 1025.4
20260906080251 15 103 4.8 12.9 0.00 0.33 0.00 75 1025.4
20260906080200 15 127 4.8 12.9 0.00 0.33 0.00 75 1025.4
20260906080001 15 98 3.2 12.9 0.00 0.33 0.00 74 1025.3
20260906075901 15 121 3.2 12.9 0.00 0.33 0.00 74 1025.3
20260906075801 15 100 3.2 12.9 0.00 0.33 0.00 74 1025.3
20260906075746 15 123 3.2 12.9 0.00 0.33 0.00 74 1025.3
20260906075700 15 92 3.2 12.9 0.00 0.33 0.00 75 1025.3
20260906075601 15 104 3.2 12.9 0.00 0.33 0.00 75 1025.4
20260906075500 15 70 1.6 12.9 0.00 0.33 0.00 76 1025.3
20260906075402 15 84 1.6 9.7 0.00 0.33 0.00 76 1025.3
20260906075305 15 110 1.6 9.7 0.00 0.33 0.00 77 1025.3
20260906075242 15 111 1.6 9.7 0.00 0.33 0.00 77 1025.3
20260906075202 15 113 1.6 9.7 0.00 0.33 0.00 78 1025.3
20260906075101 14 97 1.6 6.4 0.00 0.33 0.00 80 1025.4
20260906075001 14 109 1.6 6.4 0.00 0.33 0.00 81 1025.4
20260906074902 14 108 1.6 6.4 0.00 0.33 0.00 81 1025.4
20260906074801 14 109 1.6 6.4 0.00 0.33 0.00 81 1025.4
20260906074742 14 98 1.6 6.4 0.00 0.33 0.00 81 1025.4
20260906074701 14 106 1.6 6.4 0.00 0.33 0.00 81 1025.4
20260906074602 14 108 1.6 6.4 0.00 0.33 0.00 81 1025.4
20260906074501 14 84 1.6 6.4 0.00 0.33 0.00 82 1025.4
20260906074401 14 83 1.6 6.4 0.00 0.33 0.00 82 1025.4
20260906074300 13 86 3.2 6.4 0.00 0.33 0.00 82 1025.4
20260906074240 13 102 3.2 6.4 0.00 0.33 0.00 82 1025.4
20260906074200 13 101 3.2 11.3 0.00 0.33 0.00 82 1025.4
20260906074100 13 101 3.2 11.3 0.00 0.33 0.00 84 1025.3
20260906074010 13 87 3.2 11.3 0.00 0.33 0.00 84 1025.4
20260906074003 13 113 3.2 11.3 0.00 0.33 0.00 84 1025.4
20260906073955 13 89 3.2 11.3 0.00 0.33 0.00 83 1025.4
20260906073951 13 88 3.2 11.3 0.00 0.33 0.00 84 1025.4
20260906073655 13 89 3.2 11.3 0.00 0.33 0.00 84 1025.4
20260906073555 13 111 3.2 11.3 0.00 0.33 0.00 85 1025.4
20260906073508 13 97 1.6 11.3 0.00 0.33 0.00 85 1025.4
20260906073501 13 109 3.2 11.3 0.00 0.33 0.00 85 1025.4
20260906073453 13 106 3.2 11.3 0.00 0.33 0.00 86 1025.4
20260906073449 13 113 1.6 11.3 0.00 0.33 0.00 85 1025.4
20260906073154 13 106 1.6 9.7 0.00 0.33 0.00 85 1025.4
20260906073054 13 88 1.6 6.4 0.00 0.33 0.00 87 1025.4
20260906072953 13 86 1.6 6.4 0.00 0.33 0.00 87 1025.4
20260906072854 13 76 1.6 6.4 0.00 0.33 0.00 87 1025.4
20260906072754 13 108 1.6 6.4 0.00 0.33 0.00 87 1025.4
20260906072738 13 90 1.6 6.4 0.00 0.33 0.00 87 1025.4
20260906072653 13 90 1.6 6.4 0.00 0.33 0.00 89 1025.4
20260906072554 13 80 1.6 6.4 0.00 0.33 0.00 90 1025.4
20260906072453 13 82 1.6 6.4 0.00 0.33 0.00 93 1025.4
20260906072353 13 88 1.6 6.4 0.00 0.33 0.00 93 1025.4
20260906072254 13 115 1.6 6.4 0.00 0.33 0.00 94 1025.4
20260906072238 13 124 1.6 6.4 0.00 0.33 0.00 94 1025.4
20260906072154 13 123 1.6 6.4 0.00 0.33 0.00 94 1025.4
20260906072050 13 134 1.6 6.4 0.00 0.33 0.00 94 1025.4
20260906071949 13 134 1.6 6.4 0.00 0.33 0.00 94 1025.4
20260906071850 13 134 1.6 6.4 0.00 0.33 0.00 94 1025.4
20260906071737 13 134 1.6 6.4 0.00 0.33 0.00 95 1025.4
20260906071645 13 134 1.6 6.4 0.00 0.33 0.00 95 1025.5
20260906071542 13 132 1.6 4.8 0.00 0.33 0.00 96 1025.5
20260906071506 13 126 1.6 6.4 0.00 0.33 0.00 96 1025.6
20260906071501 13 128 1.6 4.8 0.00 0.33 0.00 96 1025.5
20260906071453 13 127 1.6 6.4 0.00 0.33 0.00 96 1025.5
20260906071449 13 127 1.6 6.4 0.00 0.33 0.00 96 1025.6
20260906071141 12 127 1.6 6.4 0.00 0.33 0.00 96 1025.5
20260906071041 12 127 1.6 6.4 0.00 0.33 0.00 96 1025.5
20260906070941 12 126 1.6 6.4 0.00 0.33 0.00 96 1025.5
20260906070841 12 126 3.2 8.0 0.00 0.33 0.00 96 1025.5
20260906070738 12 122 3.2 8.0 0.00 0.33 0.00 96 1025.4
20260906070640 12 122 3.2 8.0 0.00 0.33 0.00 96 1025.5
20260906070540 12 122 3.2 8.0 0.00 0.33 0.00 96 1025.4
20260906070439 12 123 3.2 8.0 0.00 0.33 0.00 96 1025.4
20260906070336 12 127 3.2 8.0 0.00 0.33 0.00 96 1025.4
20260906070236 12 127 3.2 8.0 0.00 0.33 0.00 96 1025.4
20260906070135 12 130 4.8 8.0 0.00 0.33 0.00 96 1025.4
20260906070035 12 130 4.8 8.0 0.00 0.33 0.00 96 1025.4
20260906065935 12 130 4.8 8.0 0.00 0.33 0.00 96 1025.4
20260906065836 12 142 4.8 8.0 0.00 0.33 0.00 96 1025.4
20260906065736 12 136 3.2 8.0 0.00 0.33 0.00 96 1025.4
20260906065636 12 136 3.2 8.0 0.00 0.33 0.00 96 1025.4
20260906065533 12 140 3.2 8.0 0.00 0.33 0.00 96 1025.4
20260906065434 12 139 3.2 8.0 0.00 0.33 0.00 96 1025.3
20260906065333 12 138 3.2 8.0 0.00 0.33 0.00 96 1025.4
20260906065233 12 146 3.2 8.0 0.00 0.33 0.00 96 1025.3
20260906065130 12 141 3.2 8.0 0.00 0.33 0.00 96 1025.3
20260906065030 12 138 3.2 6.4 0.00 0.33 0.00 96 1025.3
20260906064930 12 140 3.2 6.4 0.00 0.33 0.00 96 1025.3
20260906064830 11 139 3.2 6.4 0.00 0.33 0.00 96 1025.3
20260906064730 11 139 3.2 6.4 0.00 0.33 0.00 96 1025.3
20260906064629 11 139 3.2 6.4 0.00 0.33 0.00 96 1025.3
20260906064529 11 139 3.2 6.4 0.00 0.33 0.00 96 1025.3
20260906064453 11 138 3.2 6.4 0.00 0.33 0.00 96 1025.4
20260906064445 11 138 3.2 6.4 0.00 0.33 0.00 96 1025.3
20260906064441 11 136 3.2 6.4 0.00 0.33 0.00 96 1025.3
20260906064129 11 134 3.2 6.4 0.00 0.33 0.00 96 1025.3
20260906064030 11 134 3.2 6.4 0.00 0.33 0.00 96 1025.3
20260906063930 11 135 3.2 6.4 0.00 0.33 0.00 96 1025.3
20260906063829 11 135 3.2 6.4 0.00 0.33 0.00 96 1025.4
20260906063730 11 134 1.6 4.8 0.00 0.33 0.00 96 1025.4
20260906063630 11 134 1.6 4.8 0.00 0.33 0.00 96 1025.3
20260906063530 10 134 1.6 4.8 0.00 0.33 0.00 96 1025.4
20260906063430 10 134 1.6 4.8 0.00 0.33 0.00 95 1025.3
20260906063330 10 134 1.6 4.8 0.00 0.33 0.00 95 1025.3
20260906063229 10 134 1.6 4.8 0.00 0.33 0.00 96 1025.3
20260906063129 10 134 1.6 4.8 0.00 0.33 0.00 96 1025.3
20260906063029 10 134 1.6 4.8 0.00 0.33 0.00 95 1025.3
20260906062929 10 133 1.6 4.8 0.00 0.33 0.00 95 1025.3
20260906062829 10 133 1.6 4.8 0.00 0.33 0.00 95 1025.3
20260906062729 10 133 1.6 4.8 0.00 0.33 0.00 95 1025.2
20260906062629 10 133 1.6 4.8 0.00 0.33 0.00 95 1025.2
20260906062529 10 133 1.6 4.8 0.00 0.33 0.00 95 1025.2
20260906062429 10 133 1.6 4.8 0.00 0.33 0.00 95 1025.3
20260906062329 10 133 1.6 4.8 0.00 0.33 0.00 95 1025.2
20260906062229 10 133 1.6 4.8 0.00 0.33 0.00 95 1025.2
20260906062129 10 132 1.6 3.2 0.00 0.33 0.00 95 1025.3
20260906062029 10 132 1.6 3.2 0.00 0.33 0.00 95 1025.3
20260906061929 10 132 1.6 3.2 0.00 0.33 0.00 95 1025.3
20260906061829 10 132 1.6 3.2 0.00 0.33 0.00 95 1025.2
20260906061729 10 132 1.6 4.8 0.00 0.33 0.00 95 1025.2
20260906061629 10 132 1.6 4.8 0.00 0.33 0.00 95 1025.3
20260906061528 10 132 1.6 4.8 0.00 0.33 0.00 95 1025.2
20260906061429 10 132 1.6 4.8 0.00 0.33 0.00 95 1025.2
20260906061329 10 132 1.6 4.8 0.00 0.33 0.00 95 1025.2
20260906061228 10 132 1.6 4.8 0.00 0.33 0.00 95 1025.2
20260906061129 10 132 1.6 4.8 0.00 0.33 0.00 95 1025.2
20260906061029 10 132 1.6 4.8 0.00 0.33 0.00 95 1025.2
20260906060929 10 132 1.6 4.8 0.00 0.33 0.00 95 1025.2
20260906060829 9 131 1.6 4.8 0.00 0.33 0.00 95 1025.2
20260906060733 9 131 1.6 4.8 0.00 0.33 0.00 95 1025.2
20260906060729 9 131 1.6 4.8 0.00 0.33 0.00 95 1025.0
20260906060626 9 131 1.6 4.8 0.00 0.33 0.00 95 1025.0
20260906060526 9 131 1.6 4.8 0.00 0.33 0.00 95 1025.0
20260906060426 9 131 1.6 4.8 0.00 0.33 0.00 95 1025.0
20260906060326 9 131 1.6 4.8 0.00 0.33 0.00 95 1025.0
20260906060226 9 131 1.6 4.8 0.00 0.33 0.00 95 1025.0
20260906060126 9 131 1.6 4.8 0.00 0.33 0.00 95 1025.0
20260906060025 9 131 1.6 4.8 0.00 0.33 0.00 95 1025.0
20260906055954 9 130 1.6 4.8 0.00 0.33 0.00 95 1025.0
20260906055948 9 130 1.6 4.8 0.00 0.33 0.00 95 1025.0
20260906055939 9 130 1.6 4.8 0.00 0.33 0.00 95 1025.0
20260906055725 9 130 1.6 4.8 0.00 0.33 0.00 95 1025.0
20260906055625 9 130 1.6 4.8 0.00 0.33 0.00 94 1025.0
20260906055525 9 130 1.6 4.8 0.00 0.33 0.00 94 1025.0
20260906055426 9 130 1.6 4.8 0.00 0.33 0.00 94 1025.0
20260906055325 9 130 1.6 4.8 0.00 0.33 0.00 94 1025.0
20260906055225 9 130 1.6 4.8 0.00 0.33 0.00 94 1025.2
20260906055126 9 131 0.0 4.8 0.00 0.33 0.00 94 1025.2
20260906055026 9 130 0.0 4.8 0.00 0.33 0.00 94 1025.3
20260906054926 9 130 0.0 3.2 0.00 0.33 0.00 94 1025.3
20260906054829 9 130 0.0 3.2 0.00 0.33 0.00 95 1025.3
20260906054729 9 130 0.0 3.2 0.00 0.33 0.00 95 1025.3
20260906054722 9 130 0.0 3.2 0.00 0.33 0.00 95 1025.2
20260906054621 9 130 0.0 3.2 0.00 0.33 0.00 95 1025.2
20260906054521 9 130 0.0 1.6 0.00 0.33 0.00 95 1025.2
20260906054421 9 130 0.0 1.6 0.00 0.33 0.00 94 1025.3
20260906054321 9 130 0.0 0.0 0.00 0.33 0.00 94 1025.2
20260906054221 9 130 0.0 0.0 0.00 0.33 0.00 94 1025.2
20260906054121 9 130 0.0 0.0 0.00 0.33 0.00 94 1025.2
20260906054021 9 130 0.0 1.6 0.00 0.33 0.00 94 1025.2
20260906053952 9 130 0.0 3.2 0.00 0.33 0.00 94 1025.2
20260906053947 9 130 0.0 3.2 0.00 0.33 0.00 94 1025.2
20260906053943 9 130 0.0 3.2 0.00 0.33 0.00 94 1025.2
20260906053719 9 130 0.0 3.2 0.00 0.33 0.00 94 1025.2
20260906053618 9 130 0.0 3.2 0.00 0.33 0.00 94 1025.3
20260906053519 9 130 0.0 3.2 0.00 0.33 0.00 94 1025.2
20260906053419 9 130 0.0 3.2 0.00 0.33 0.00 94 1025.2
20260906053317 9 130 0.0 3.2 0.00 0.33 0.00 94 1025.2
20260906053228 9 130 0.0 3.2 0.00 0.33 0.00 94 1025.2
20260906053215 9 130 0.0 3.2 0.00 0.33 0.00 94 1025.0
20260906053112 9 130 1.6 3.2 0.00 0.33 0.00 94 1025.2
20260906053008 9 130 1.6 3.2 0.00 0.33 0.00 94 1025.2
20260906052905 9 130 1.6 3.2 0.00 0.33 0.00 94 1025.2
20260906052802 9 130 1.6 3.2 0.00 0.33 0.00 94 1025.2
20260906052729 9 130 1.6 3.2 0.00 0.33 0.00 94 1025.2
20260906052701 9 130 1.6 3.2 0.00 0.33 0.00 94 1025.0
20260906052601 9 130 1.6 3.2 0.00 0.33 0.00 94 1025.0
20260906052501 9 130 1.6 3.2 0.00 0.33 0.00 93 1025.0
20260906052401 9 130 1.6 3.2 0.00 0.33 0.00 93 1025.0
20260906052305 9 130 1.6 3.2 0.00 0.33 0.00 93 1025.2
20260906052230 9 130 1.6 3.2 0.00 0.33 0.00 93 1025.2
20260906052201 9 130 1.6 3.2 0.00 0.33 0.00 94 1025.0
20260906052101 9 130 1.6 3.2 0.00 0.33 0.00 94 1025.2
20260906052001 9 130 1.6 3.2 0.00 0.33 0.00 94 1025.2
20260906051901 9 130 1.6 3.2 0.00 0.33 0.00 94 1025.2
20260906051801 9 130 1.6 3.2 0.00 0.33 0.00 94 1025.2
20260906051729 9 130 1.6 3.2 0.00 0.33 0.00 94 1025.2
20260906051701 9 130 0.0 3.2 0.00 0.33 0.00 94 1025.0
20260906051600 9 130 0.0 3.2 0.00 0.33 0.00 94 1025.0
20260906051501 9 130 0.0 3.2 0.00 0.33 0.00 94 1025.0
20260906051453 9 130 0.0 1.6 0.00 0.33 0.00 94 1025.0
20260906051448 9 130 0.0 3.2 0.00 0.33 0.00 94 1025.0
20260906051440 9 130 0.0 3.2 0.00 0.33 0.00 94 1025.0
20260906051200 9 130 0.0 0.0 0.00 0.33 0.00 94 1025.0
20260906051100 9 130 0.0 0.0 0.00 0.33 0.00 94 1025.0
20260906051000 9 130 0.0 0.0 0.00 0.33 0.00 93 1025.0
20260906050900 9 130 0.0 0.0 0.00 0.33 0.00 93 1025.0
20260906050804 9 130 0.0 0.0 0.00 0.33 0.00 93 1025.0
20260906050701 9 130 0.0 0.0 0.00 0.33 0.00 93 1025.0
20260906050602 9 130 0.0 0.0 0.00 0.33 0.00 93 1025.0
20260906050501 9 130 0.0 0.0 0.00 0.33 0.00 93 1025.0
20260906050401 9 130 0.0 0.0 0.00 0.33 0.00 93 1025.0
20260906050303 9 130 0.0 0.0 0.00 0.33 0.00 93 1025.0
20260906050201 9 130 0.0 0.0 0.00 0.33 0.00 93 1025.0
20260906050101 10 130 0.0 0.0 0.00 0.33 0.00 93 1025.0
20260906050000 10 130 0.0 0.0 0.00 0.33 0.00 93 1025.0
20260906045900 10 130 0.0 0.0 0.00 0.33 0.00 93 1025.0
20260906045800 10 130 0.0 0.0 0.00 0.33 0.00 93 1025.2
20260906045729 10 130 0.0 0.0 0.00 0.33 0.00 94 1025.2
20260906045700 10 130 0.0 0.0 0.00 0.33 0.00 94 1025.2
20260906045600 10 130 0.0 0.0 0.00 0.33 0.00 94 1025.2
20260906045458 10 130 0.0 0.0 0.00 0.33 0.00 94 1025.2
20260906045357 10 130 0.0 0.0 0.00 0.33 0.00 94 1025.2
20260906045259 10 130 0.0 0.0 0.00 0.33 0.00 94 1025.2
20260906045229 10 130 0.0 0.0 0.00 0.33 0.00 94 1025.2
20260906045153 10 130 0.0 0.0 0.00 0.33 0.00 94 1025.2
20260906045053 10 130 0.0 0.0 0.00 0.33 0.00 94 1025.2
20260906044951 10 130 0.0 0.0 0.00 0.33 0.00 94 1025.2
20260906044947 10 130 0.0 0.0 0.00 0.33 0.00 94 1025.2
20260906044939 10 130 0.0 0.0 0.00 0.33 0.00 94 1025.2
20260906044651 10 130 0.0 0.0 0.00 0.33 0.00 94 1025.2
20260906044552 10 130 0.0 0.0 0.00 0.33 0.00 94 1025.2
20260906044450 10 130 0.0 0.0 0.00 0.33 0.00 94 1025.2
20260906044349 10 130 0.0 0.0 0.00 0.33 0.00 94 1025.0
20260906044228 10 130 0.0 0.0 0.00 0.33 0.00 94 1025.0
20260906044146 10 130 0.0 0.0 0.00 0.33 0.00 94 1025.0
20260906044046 10 130 0.0 0.0 0.00 0.33 0.00 94 1025.0
20260906043943 10 130 0.0 0.0 0.00 0.33 0.00 94 1025.0
20260906043843 10 130 0.0 0.0 0.00 0.33 0.00 94 1025.0
20260906043729 10 130 0.0 0.0 0.00 0.33 0.00 94 1025.0
20260906043712 10 130 0.0 0.0 0.00 0.33 0.00 94 1024.9
20260906043703 10 130 0.0 0.0 0.00 0.33 0.00 94 1025.0
20260906043659 10 130 0.0 0.0 0.00 0.33 0.00 94 1025.0
20260906043655 10 130 0.0 0.0 0.00 0.33 0.00 94 1025.0
20260906043651 10 130 0.0 0.0 0.00 0.33 0.00 94 1025.0
20260906043643 10 130 0.0 0.0 0.00 0.33 0.00 94 1025.0
20260906043213 10 130 0.0 0.0 0.00 0.33 0.00 94 1025.0
20260906043208 10 130 0.0 0.0 0.00 0.33 0.00 94 1025.0
20260906042953 10 130 0.0 0.0 0.00 0.33 0.00 94 1025.0
20260906042949 10 130 0.0 0.0 0.00 0.33 0.00 94 1024.9
20260906042941 10 130 0.0 0.0 0.00 0.33 0.00 94 1024.9
20260906042629 10 130 0.0 0.0 0.00 0.33 0.00 94 1024.9
20260906042529 10 130 0.0 0.0 0.00 0.33 0.00 93 1024.9
20260906042452 10 130 0.0 0.0 0.00 0.33 0.00 93 1024.9
20260906042448 10 130 0.0 1.6 0.00 0.33 0.00 94 1024.9
20260906042440 10 130 0.0 1.6 0.00 0.33 0.00 93 1024.9
20260906042129 10 130 0.0 1.6 0.00 0.33 0.00 94 1024.9
20260906042029 10 130 0.0 1.6 0.00 0.33 0.00 94 1025.0
20260906041929 10 130 0.0 1.6 0.00 0.33 0.00 94 1025.0
20260906041829 10 130 0.0 1.6 0.00 0.33 0.00 94 1025.0
20260906041729 10 130 0.0 1.6 0.00 0.33 0.00 94 1025.0
20260906041629 10 130 0.0 1.6 0.00 0.33 0.00 94 1025.0
20260906041529 10 130 0.0 1.6 0.00 0.33 0.00 94 1025.0
20260906041429 10 130 0.0 1.6 0.00 0.33 0.00 94 1025.0
20260906041329 10 130 0.0 1.6 0.00 0.33 0.00 94 1024.9
20260906041229 10 130 0.0 1.6 0.00 0.33 0.00 94 1024.9
20260906041129 10 130 0.0 1.6 0.00 0.33 0.00 94 1024.9
20260906041029 10 130 0.0 1.6 0.00 0.33 0.00 95 1025.0
20260906040929 10 130 0.0 1.6 0.00 0.33 0.00 95 1024.9
20260906040829 10 130 0.0 1.6 0.00 0.33 0.00 95 1024.9
20260906040729 10 130 0.0 1.6 0.00 0.33 0.00 95 1024.9
20260906040628 10 130 0.0 1.6 0.00 0.33 0.00 95 1024.9
20260906040528 10 130 0.0 1.6 0.00 0.33 0.00 95 1024.8
20260906040428 10 130 0.0 3.2 0.00 0.33 0.00 95 1024.8
20260906040328 10 130 0.0 3.2 0.00 0.33 0.00 95 1024.9
20260906040228 10 130 0.0 3.2 0.00 0.33 0.00 95 1024.9
20260906040128 10 130 0.0 3.2 0.00 0.33 0.00 95 1024.9
20260906040028 10 130 0.0 3.2 0.00 0.33 0.00 95 1024.8
20260906035953 10 130 0.0 3.2 0.00 0.33 0.00 95 1024.8
20260906035949 10 130 0.0 3.2 0.00 0.33 0.00 95 1024.8
20260906035941 10 130 0.0 3.2 0.00 0.33 0.00 94 1024.8
20260906035630 10 130 0.0 3.2 0.00 0.33 0.00 95 1024.7
20260906035529 10 130 0.0 3.2 0.00 0.33 0.00 95 1024.7
20260906035430 10 130 0.0 3.2 0.00 0.33 0.00 95 1024.7
20260906035329 10 130 0.0 3.2 0.00 0.33 0.00 94 1024.7
20260906035234 10 130 0.0 3.2 0.00 0.33 0.00 94 1024.7
20260906035130 10 130 0.0 3.2 0.00 0.33 0.00 94 1024.7
20260906035030 10 130 0.0 3.2 0.00 0.33 0.00 94 1024.7
20260906034929 10 130 0.0 3.2 0.00 0.33 0.00 94 1024.7
20260906034829 10 130 0.0 3.2 0.00 0.33 0.00 94 1024.7
20260906034730 10 130 0.0 3.2 0.00 0.33 0.00 94 1024.7
20260906034629 10 130 0.0 3.2 0.00 0.33 0.00 94 1024.7
20260906034529 10 130 0.0 3.2 0.00 0.33 0.00 94 1024.7
20260906034429 10 130 0.0 3.2 0.00 0.33 0.00 94 1024.7
20260906034329 10 130 0.0 3.2 0.00 0.33 0.00 94 1024.7
20260906034229 10 130 0.0 3.2 0.00 0.33 0.00 94 1024.8
20260906034129 10 130 0.0 3.2 0.00 0.33 0.00 94 1024.8
20260906034029 10 130 0.0 3.2 0.00 0.33 0.00 94 1024.8
20260906033929 10 130 0.0 3.2 0.00 0.33 0.00 94 1024.8
20260906033829 10 130 0.0 3.2 0.00 0.33 0.00 94 1024.8
20260906033729 10 130 0.0 3.2 0.00 0.33 0.00 94 1024.8
20260906033629 10 130 0.0 3.2 0.00 0.33 0.00 94 1024.7
20260906033529 10 130 0.0 3.2 0.00 0.33 0.00 94 1024.8
20260906033428 10 130 0.0 3.2 0.00 0.33 0.00 94 1024.8
20260906033328 10 130 0.0 0.0 0.00 0.33 0.00 94 1024.8
20260906033228 10 130 0.0 0.0 0.00 0.33 0.00 94 1024.7
20260906033131 10 130 0.0 0.0 0.00 0.33 0.00 94 1024.8
20260906033027 10 130 0.0 0.0 0.00 0.33 0.00 94 1024.9
20260906032925 10 130 0.0 0.0 0.00 0.33 0.00 94 1024.8
20260906032825 10 130 0.0 0.0 0.00 0.33 0.00 94 1024.8
20260906032723 10 130 0.0 0.0 0.00 0.33 0.00 94 1024.8
20260906032623 10 130 0.0 0.0 0.00 0.33 0.00 94 1024.8
20260906032523 10 130 0.0 0.0 0.00 0.33 0.00 94 1024.8
20260906032423 10 130 0.0 0.0 0.00 0.33 0.00 94 1024.8
20260906032323 10 130 0.0 0.0 0.00 0.33 0.00 94 1024.8
20260906032221 10 130 0.0 0.0 0.00 0.33 0.00 94 1024.8
20260906032121 10 130 0.0 0.0 0.00 0.33 0.00 94 1024.8
20260906032019 10 130 0.0 0.0 0.00 0.33 0.00 94 1024.8
20260906031919 10 130 0.0 0.0 0.00 0.33 0.00 94 1024.8
20260906031819 10 130 0.0 0.0 0.00 0.33 0.00 94 1024.7
20260906031729 10 130 0.0 0.0 0.00 0.33 0.00 94 1024.7
20260906031719 10 130 0.0 0.0 0.00 0.33 0.00 94 1024.8
20260906031619 10 130 0.0 0.0 0.00 0.33 0.00 94 1024.8
20260906031519 10 130 0.0 0.0 0.00 0.33 0.00 93 1024.7
20260906031417 10 130 0.0 0.0 0.00 0.33 0.00 93 1024.8
20260906031317 10 130 0.0 0.0 0.00 0.33 0.00 93 1024.8
20260906031217 10 130 0.0 0.0 0.00 0.33 0.00 93 1024.8
20260906031117 10 130 0.0 0.0 0.00 0.33 0.00 93 1024.7
20260906031017 10 130 0.0 0.0 0.00 0.33 0.00 93 1024.7
20260906030915 10 130 0.0 0.0 0.00 0.33 0.00 93 1024.7
20260906030813 10 130 0.0 0.0 0.00 0.33 0.00 93 1024.7
20260906030728 10 130 0.0 0.0 0.00 0.33 0.00 93 1024.7
20260906030713 10 130 0.0 0.0 0.00 0.33 0.00 93 1024.6
20260906030611 10 130 0.0 0.0 0.00 0.33 0.00 93 1024.7
20260906030509 10 130 0.0 0.0 0.00 0.33 0.00 93 1024.6
20260906030409 10 130 0.0 0.0 0.00 0.33 0.00 93 1024.6
20260906030307 10 130 0.0 0.0 0.00 0.33 0.00 93 1024.6
20260906030208 10 130 0.0 0.0 0.00 0.33 0.00 93 1024.6
20260906030105 10 130 0.0 1.6 0.00 0.33 0.00 93 1024.6
20260906030005 10 130 0.0 1.6 0.00 0.33 0.00 93 1024.5
20260906025901 10 130 0.0 1.6 0.00 0.33 0.00 93 1024.5
20260906025801 10 130 0.0 1.6 0.00 0.33 0.00 93 1024.5
20260906025705 10 130 0.0 1.6 0.00 0.33 0.00 93 1024.5
20260906025602 10 130 0.0 1.6 0.00 0.33 0.00 93 1024.6
20260906025502 10 130 0.0 1.6 0.00 0.33 0.00 93 1024.5
20260906025402 10 130 0.0 1.6 0.00 0.33 0.00 93 1024.5
20260906025301 10 130 0.0 1.6 0.00 0.33 0.00 93 1024.5
20260906025229 10 130 0.0 1.6 0.00 0.33 0.00 93 1024.5
20260906025203 10 130 0.0 3.2 0.00 0.33 0.00 93 1024.6
20260906025102 10 130 0.0 3.2 0.00 0.33 0.00 93 1024.5
20260906025001 10 130 0.0 3.2 0.00 0.33 0.00 93 1024.5
20260906024901 10 130 0.0 3.2 0.00 0.33 0.00 93 1024.6
20260906024801 10 130 1.6 3.2 0.00 0.33 0.00 93 1024.5
20260906024701 10 130 1.6 3.2 0.00 0.33 0.00 93 1024.5
20260906024601 10 130 1.6 3.2 0.00 0.33 0.00 93 1024.5
20260906024501 10 130 1.6 3.2 0.00 0.33 0.00 93 1024.5
20260906024401 10 130 1.6 3.2 0.00 0.33 0.00 93 1024.5
20260906024301 10 130 1.6 3.2 0.00 0.33 0.00 93 1024.5
20260906024200 10 130 1.6 3.2 0.00 0.33 0.00 93 1024.5
20260906024100 10 130 1.6 3.2 0.00 0.33 0.00 93 1024.5
20260906024000 10 130 1.6 3.2 0.00 0.33 0.00 93 1024.5
20260906023900 10 130 1.6 4.8 0.00 0.33 0.00 93 1024.5
20260906023800 10 130 1.6 4.8 0.00 0.33 0.00 94 1024.5
20260906023701 10 130 1.6 4.8 0.00 0.33 0.00 94 1024.5
20260906023600 10 130 1.6 4.8 0.00 0.33 0.00 93 1024.5
20260906023500 10 130 1.6 4.8 0.00 0.33 0.00 94 1024.5
20260906023400 10 130 1.6 4.8 0.00 0.33 0.00 93 1024.5
20260906023300 10 130 1.6 4.8 0.00 0.33 0.00 93 1024.5
20260906023228 10 130 1.6 4.8 0.00 0.33 0.00 93 1024.5
20260906023201 10 130 1.6 4.8 0.00 0.33 0.00 93 1024.6
20260906023101 10 130 0.0 4.8 0.00 0.33 0.00 93 1024.5
20260906023001 10 128 0.0 4.8 0.00 0.33 0.00 93 1024.5
20260906022949 10 126 0.0 3.2 0.00 0.33 0.00 93 1024.5
20260906022944 10 127 0.0 1.6 0.00 0.33 0.00 93 1024.5
20260906022940 10 128 0.0 3.2 0.00 0.33 0.00 93 1024.5
20260906022701 10 126 0.0 3.2 0.00 0.33 0.00 93 1024.5
20260906022601 10 126 0.0 3.2 0.00 0.33 0.00 93 1024.6
20260906022501 10 126 1.6 3.2 0.00 0.33 0.00 93 1024.6
20260906022401 10 126 1.6 4.8 0.00 0.33 0.00 93 1024.6
20260906022301 10 126 1.6 4.8 0.00 0.33 0.00 92 1024.6
20260906022201 10 126 1.6 4.8 0.00 0.33 0.00 92 1024.6
20260906022101 10 126 1.6 4.8 0.00 0.33 0.00 92 1024.6
20260906022001 10 126 1.6 4.8 0.00 0.33 0.00 92 1024.5
20260906021901 10 126 1.6 4.8 0.00 0.33 0.00 92 1024.6
20260906021801 10 126 1.6 4.8 0.00 0.33 0.00 92 1024.5
20260906021729 10 126 1.6 4.8 0.00 0.33 0.00 92 1024.5
20260906021701 10 126 0.0 4.8 0.00 0.33 0.00 92 1024.6
20260906021600 10 126 0.0 4.8 0.00 0.33 0.00 92 1024.7
20260906021500 10 127 0.0 4.8 0.00 0.33 0.00 92 1024.6
20260906021401 10 134 0.0 3.2 0.00 0.33 0.00 92 1024.6
20260906021301 10 134 0.0 3.2 0.00 0.33 0.00 92 1024.7
20260906021228 10 134 0.0 3.2 0.00 0.33 0.00 92 1024.7
20260906021201 10 135 0.0 1.6 0.00 0.33 0.00 92 1024.6
20260906021101 10 135 0.0 1.6 0.00 0.33 0.00 92 1024.6
20260906021001 10 135 0.0 1.6 0.00 0.33 0.00 92 1024.6
20260906020901 10 135 0.0 1.6 0.00 0.33 0.00 92 1024.6
20260906020801 10 135 0.0 1.6 0.00 0.33 0.00 91 1024.6
20260906020700 10 135 0.0 1.6 0.00 0.33 0.00 91 1024.6
20260906020600 10 135 0.0 3.2 0.00 0.33 0.00 91 1024.7
20260906020500 10 135 0.0 3.2 0.00 0.33 0.00 91 1024.6
20260906020400 10 135 0.0 3.2 0.00 0.33 0.00 91 1024.6
20260906020300 10 135 0.0 3.2 0.00 0.33 0.00 91 1024.6
20260906020201 10 135 0.0 3.2 0.00 0.33 0.00 91 1024.6
20260906020059 10 135 0.0 3.2 0.00 0.33 0.00 91 1024.6
20260906015959 10 135 0.0 3.2 0.00 0.33 0.00 91 1024.6
20260906015859 10 135 0.0 3.2 0.00 0.33 0.00 91 1024.6
20260906015729 11 135 0.0 3.2 0.00 0.33 0.00 92 1024.6
20260906015659 11 135 0.0 3.2 0.00 0.33 0.00 92 1024.6
20260906015559 11 134 0.0 3.2 0.00 0.33 0.00 92 1024.6
20260906015458 11 135 0.0 0.0 0.00 0.33 0.00 92 1024.6
20260906015359 11 134 0.0 0.0 0.00 0.33 0.00 91 1024.6
20260906015229 11 134 0.0 0.0 0.00 0.33 0.00 91 1024.6
20260906015157 11 134 0.0 0.0 0.00 0.33 0.00 91 1024.6
20260906015055 11 134 0.0 0.0 0.00 0.33 0.00 91 1024.6
20260906014953 11 134 0.0 0.0 0.00 0.33 0.00 91 1024.6
20260906014853 11 134 0.0 0.0 0.00 0.33 0.00 91 1024.6
20260906014729 11 134 0.0 0.0 0.00 0.33 0.00 91 1024.6
20260906014651 11 134 0.0 0.0 0.00 0.33 0.00 91 1024.6
20260906014549 11 134 0.0 0.0 0.00 0.33 0.00 92 1024.6
20260906014447 11 134 0.0 0.0 0.00 0.33 0.00 92 1024.6
20260906014344 11 134 0.0 0.0 0.00 0.33 0.00 92 1024.6
20260906014229 11 134 0.0 0.0 0.00 0.33 0.00 92 1024.6
20260906014145 11 134 0.0 0.0 0.00 0.33 0.00 92 1024.6
20260906014043 11 134 0.0 0.0 0.00 0.33 0.00 92 1024.6
20260906013940 11 134 0.0 0.0 0.00 0.33 0.00 92 1024.5
20260906013841 11 134 0.0 0.0 0.00 0.33 0.00 92 1024.5
20260906013727 11 134 0.0 0.0 0.00 0.33 0.00 92 1024.4
20260906013639 11 134 0.0 0.0 0.00 0.33 0.00 92 1024.4
20260906013537 11 134 0.0 0.0 0.00 0.33 0.00 92 1024.4
20260906013435 11 134 0.0 0.0 0.00 0.33 0.00 92 1024.4
20260906013335 11 134 0.0 0.0 0.00 0.33 0.00 92 1024.4
20260906013226 11 134 0.0 0.0 0.00 0.33 0.00 92 1024.4
20260906013130 11 134 0.0 0.0 0.00 0.33 0.00 92 1024.4
20260906013030 11 134 0.0 0.0 0.00 0.33 0.00 92 1024.4
20260906012946 11 134 0.0 0.0 0.00 0.33 0.00 92 1024.4
20260906012942 11 134 0.0 0.0 0.00 0.33 0.00 92 1024.3
20260906012938 11 134 0.0 0.0 0.00 0.33 0.00 92 1024.4
20260906012629 11 134 0.0 0.0 0.00 0.33 0.00 92 1024.4
20260906012529 11 134 0.0 0.0 0.00 0.33 0.00 92 1024.4
20260906012429 11 134 0.0 0.0 0.00 0.33 0.00 92 1024.4
20260906012329 11 134 0.0 0.0 0.00 0.33 0.00 92 1024.4
20260906012225 11 134 0.0 0.0 0.00 0.33 0.00 92 1024.4
20260906012129 11 134 0.0 0.0 0.00 0.33 0.00 92 1024.4
20260906012029 11 134 0.0 0.0 0.00 0.33 0.00 92 1024.4
20260906011929 11 134 0.0 0.0 0.00 0.33 0.00 92 1024.4
20260906011829 11 134 0.0 0.0 0.00 0.33 0.00 92 1024.4
20260906011722 11 134 0.0 0.0 0.00 0.33 0.00 91 1024.4
20260906011628 11 134 0.0 0.0 0.00 0.33 0.00 92 1024.4
20260906011529 11 134 0.0 0.0 0.00 0.33 0.00 92 1024.4
20260906011429 11 134 0.0 0.0 0.00 0.33 0.00 91 1024.4
20260906011328 11 134 0.0 0.0 0.00 0.33 0.00 91 1024.4
20260906011221 11 134 0.0 0.0 0.00 0.33 0.00 91 1024.4
20260906011128 11 134 0.0 0.0 0.00 0.33 0.00 91 1024.4
20260906011029 11 134 0.0 0.0 0.00 0.33 0.00 91 1024.4
20260906010929 11 134 0.0 0.0 0.00 0.33 0.00 91 1024.4
20260906010829 11 134 0.0 0.0 0.00 0.33 0.00 91 1024.4
20260906010729 11 134 0.0 0.0 0.00 0.33 0.00 91 1024.3
20260906010718 11 134 0.0 0.0 0.00 0.33 0.00 91 1024.4
20260906010628 11 134 0.0 0.0 0.00 0.33 0.00 91 1024.4
20260906010528 11 134 0.0 0.0 0.00 0.33 0.00 91 1024.4
20260906010428 11 134 0.0 0.0 0.00 0.33 0.00 91 1024.4
20260906010328 11 134 0.0 0.0 0.00 0.33 0.00 91 1024.4
20260906010228 11 134 0.0 0.0 0.00 0.33 0.00 91 1024.4
20260906010219 11 134 0.0 1.6 0.00 0.33 0.00 91 1024.4
20260906010129 11 134 0.0 1.6 0.00 0.33 0.00 91 1024.4
20260906010030 11 134 0.0 1.6 0.00 0.33 0.00 91 1024.4
20260906005930 11 134 0.0 1.6 0.00 0.33 0.00 91 1024.4
20260906005828 11 134 0.0 1.6 0.00 0.33 0.00 91 1024.4
20260906005719 11 134 0.0 1.6 0.00 0.33 0.00 91 1024.4
20260906005629 11 134 0.0 1.6 0.00 0.33 0.00 91 1024.4
20260906005529 11 134 0.0 1.6 0.00 0.33 0.00 91 1024.4
20260906005429 11 134 0.0 1.6 0.00 0.33 0.00 91 1024.4
20260906005329 11 134 0.0 1.6 0.00 0.33 0.00 91 1024.4
20260906005218 11 134 0.0 1.6 0.00 0.33 0.00 91 1024.4
20260906005128 11 134 0.0 1.6 0.00 0.33 0.00 91 1024.4
20260906005029 11 134 0.0 1.6 0.00 0.33 0.00 90 1024.4
20260906004936 11 134 0.0 1.6 0.00 0.33 0.00 90 1024.5
20260906004931 11 134 0.0 1.6 0.00 0.33 0.00 90 1024.4
20260906004927 11 134 0.0 1.6 0.00 0.33 0.00 90 1024.4
20260906004923 11 134 0.0 1.6 0.00 0.33 0.00 90 1024.4
20260906004628 11 134 0.0 1.6 0.00 0.33 0.00 90 1024.5
20260906004532 11 134 0.0 3.2 0.00 0.33 0.00 90 1024.4
20260906004432 11 134 0.0 4.8 0.00 0.33 0.00 90 1024.4
20260906004428 11 134 1.6 6.4 0.00 0.33 0.00 90 1024.4
20260906004424 11 134 1.6 6.4 0.00 0.33 0.00 90 1024.4
20260906004129 11 134 1.6 6.4 0.00 0.33 0.00 90 1024.4
20260906004030 11 134 3.2 8.0 0.00 0.33 0.00 90 1024.4
20260906003929 11 134 3.2 8.0 0.00 0.33 0.00 90 1024.5
20260906003829 11 134 3.2 8.0 0.00 0.33 0.00 90 1024.5
20260906003729 11 134 3.2 8.0 0.00 0.33 0.00 90 1024.4
20260906003710 11 134 3.2 8.0 0.00 0.33 0.00 90 1024.5
20260906003629 11 134 3.2 8.0 0.00 0.33 0.00 90 1024.5
20260906003528 11 134 1.6 8.0 0.00 0.33 0.00 90 1024.5
20260906003429 11 134 1.6 8.0 0.00 0.33 0.00 90 1024.4
20260906003328 11 138 1.6 8.0 0.00 0.33 0.00 90 1024.5
20260906003228 11 139 1.6 8.0 0.00 0.33 0.00 90 1024.4
20260906003209 11 140 0.0 8.0 0.00 0.33 0.00 90 1024.5
20260906003129 11 139 0.0 8.0 0.00 0.33 0.00 91 1024.5
20260906003029 11 198 0.0 3.2 0.00 0.33 0.00 91 1024.4
20260906002929 11 198 0.0 0.0 0.00 0.33 0.00 91 1024.4
20260906002925 11 198 0.0 0.0 0.00 0.33 0.00 91 1024.4
20260906002921 11 198 0.0 0.0 0.00 0.33 0.00 91 1024.4
20260906002630 11 198 0.0 0.0 0.00 0.33 0.00 91 1024.4
20260906002529 11 198 0.0 0.0 0.00 0.33 0.00 90 1024.4
20260906002429 11 198 0.0 0.0 0.00 0.33 0.00 90 1024.4
20260906002328 11 198 0.0 0.0 0.00 0.33 0.00 90 1024.4
20260906002228 11 198 0.0 0.0 0.00 0.33 0.00 90 1024.4
20260906002209 11 198 0.0 0.0 0.00 0.33 0.00 90 1024.5
20260906002128 11 198 0.0 0.0 0.00 0.33 0.00 90 1024.5
20260906002029 12 198 0.0 0.0 0.00 0.33 0.00 90 1024.4
20260906001929 12 198 0.0 0.0 0.00 0.33 0.00 90 1024.4
20260906001829 12 198 0.0 0.0 0.00 0.33 0.00 90 1024.4
20260906001709 12 198 0.0 0.0 0.00 0.33 0.00 90 1024.4
20260906001628 12 198 0.0 0.0 0.00 0.33 0.00 90 1024.4
20260906001529 12 198 0.0 0.0 0.00 0.33 0.00 90 1024.3
20260906001429 12 198 0.0 0.0 0.00 0.33 0.00 90 1024.3
20260906001329 12 198 0.0 0.0 0.00 0.33 0.00 90 1024.4
20260906001209 12 198 0.0 0.0 0.00 0.33 0.00 90 1024.3
20260906001129 12 198 0.0 0.0 0.00 0.33 0.00 90 1024.3
20260906001029 12 198 0.0 0.0 0.00 0.33 0.00 90 1024.4
20260906000928 12 198 0.0 0.0 0.00 0.33 0.00 90 1024.3
20260906000828 12 198 0.0 0.0 0.00 0.33 0.00 90 1024.3
20260906000709 12 198 0.0 0.0 0.00 0.33 0.00 90 1024.3
20260906000629 12 198 0.0 0.0 0.00 0.33 0.00 90 1024.3
20260906000529 12 198 0.0 0.0 0.00 0.33 0.00 90 1024.3
20260906000429 12 198 0.0 0.0 0.00 0.33 0.00 90 1024.2
20260906000329 12 198 0.0 0.0 0.00 0.33 0.00 90 1024.2
20260906000208 12 198 0.0 0.0 0.00 0.33 0.00 90 1024.2
20260906000129 12 198 0.0 0.0 0.00 0.33 0.00 90 1024.2
20260906000029 12 198 0.0 0.0 0.00 0.33 0.00 90 1024.3
20260905235929 12 198 0.0 0.0 0.00 0.33 0.00 90 1024.3
20260905235825 12 198 0.0 0.0 0.00 0.33 0.00 90 1024.3
20260905235707 12 198 0.0 0.0 0.00 0.33 0.00 90 1024.3
20260905235622 12 198 0.0 0.0 0.00 0.33 0.00 90 1024.3
20260905235522 12 198 0.0 0.0 0.00 0.33 0.00 90 1024.3
20260905235420 12 198 0.0 0.0 0.00 0.33 0.00 90 1024.3
20260905235317 12 198 0.0 0.0 0.00 0.33 0.00 90 1024.3
20260905235207 12 198 0.0 0.0 0.00 0.33 0.00 90 1024.3
20260905235117 12 198 0.0 0.0 0.00 0.33 0.00 90 1024.4
20260905235017 12 198 0.0 0.0 0.00 0.33 0.00 90 1024.3
20260905234917 12 198 0.0 0.0 0.00 0.33 0.00 90 1024.3
20260905234817 12 198 0.0 0.0 0.00 0.33 0.00 90 1024.3
20260905234706 12 198 0.0 0.0 0.00 0.33 0.00 90 1024.4
20260905234615 12 198 0.0 0.0 0.00 0.33 0.00 90 1024.4
20260905234516 12 198 0.0 0.0 0.00 0.33 0.00 90 1024.4
20260905234412 12 198 0.0 0.0 0.00 0.33 0.00 90 1024.4
20260905234312 12 198 0.0 0.0 0.00 0.33 0.00 90 1024.4
20260905234206 12 198 0.0 0.0 0.00 0.33 0.00 90 1024.4
20260905234111 12 198 0.0 0.0 0.00 0.33 0.00 90 1024.4
20260905234011 12 198 0.0 0.0 0.00 0.33 0.00 90 1024.5
20260905233911 12 198 0.0 0.0 0.00 0.33 0.00 90 1024.4
20260905233811 12 198 0.0 0.0 0.00 0.33 0.00 90 1024.5
20260905233707 12 198 0.0 0.0 0.00 0.33 0.00 90 1024.4
20260905233611 12 198 0.0 0.0 0.00 0.33 0.00 90 1024.4
20260905233510 12 198 0.0 0.0 0.00 0.33 0.00 90 1024.5
20260905233411 12 198 0.0 0.0 0.00 0.33 0.00 90 1024.5
20260905233310 12 198 0.0 0.0 0.00 0.33 0.00 90 1024.4
20260905233202 12 198 0.0 0.0 0.00 0.33 0.00 90 1024.4
20260905233110 12 198 0.0 0.0 0.00 0.33 0.00 90 1024.4
20260905232906 12 198 0.0 0.0 0.00 0.33 0.00 90 1024.4
20260905232806 12 198 0.0 0.0 0.00 0.33 0.00 89 1024.4
20260905232703 12 198 0.0 0.0 0.00 0.33 0.00 89 1024.4
20260905232607 12 198 0.0 0.0 0.00 0.33 0.00 89 1024.4
20260905232507 12 198 0.0 0.0 0.00 0.33 0.00 89 1024.4
20260905232407 12 198 0.0 0.0 0.00 0.33 0.00 89 1024.4
20260905232306 12 198 0.0 0.0 0.00 0.33 0.00 89 1024.4
20260905232202 12 198 0.0 0.0 0.00 0.33 0.00 89 1024.4
20260905232106 12 198 0.0 0.0 0.00 0.33 0.00 89 1024.4
20260905232007 12 198 0.0 0.0 0.00 0.33 0.00 89 1024.4
20260905231906 12 198 0.0 0.0 0.00 0.33 0.00 89 1024.4
20260905231806 12 198 0.0 0.0 0.00 0.33 0.00 89 1024.4
20260905231703 12 198 0.0 0.0 0.00 0.33 0.00 89 1024.4
20260905231607 12 198 0.0 0.0 0.00 0.33 0.00 89 1024.4
20260905231507 12 198 0.0 0.0 0.00 0.33 0.00 89 1024.5
20260905231407 12 198 0.0 0.0 0.00 0.33 0.00 89 1024.4
20260905231307 12 198 0.0 0.0 0.00 0.33 0.00 89 1024.4
20260905231203 12 198 0.0 0.0 0.00 0.33 0.00 89 1024.4
20260905231107 12 198 0.0 0.0 0.00 0.33 0.00 89 1024.4
20260905231003 13 198 0.0 0.0 0.00 0.33 0.00 89 1024.5
20260905230903 13 198 0.0 0.0 0.00 0.33 0.00 89 1024.5
20260905230803 13 198 0.0 0.0 0.00 0.33 0.00 89 1024.5
20260905230702 13 198 0.0 0.0 0.00 0.33 0.00 89 1024.5
20260905230602 13 198 0.0 0.0 0.00 0.33 0.00 90 1024.5
20260905230502 13 198 0.0 0.0 0.00 0.33 0.00 90 1024.5
20260905230402 13 198 0.0 0.0 0.00 0.33 0.00 91 1024.5
20260905230302 13 198 0.0 0.0 0.00 0.33 0.00 91 1024.5
20260905230201 13 198 0.0 0.0 0.00 0.33 0.00 91 1024.5
20260905230100 13 198 0.0 0.0 0.00 0.33 0.00 90 1024.5
20260905230001 13 198 0.0 0.0 0.00 0.33 0.00 91 1024.5
20260905225901 13 198 0.0 1.6 0.00 0.33 0.00 91 1024.5
20260905225801 13 198 0.0 1.6 0.00 0.33 0.00 91 1024.5
20260905225702 13 198 0.0 1.6 0.00 0.33 0.00 90 1024.5
20260905225601 13 198 0.0 1.6 0.00 0.33 0.00 90 1024.5
20260905225501 13 198 0.0 3.2 0.00 0.33 0.00 91 1024.5
20260905225401 13 198 0.0 3.2 0.00 0.33 0.00 90 1024.5
20260905225301 13 198 0.0 3.2 0.00 0.33 0.00 90 1024.5
20260905225201 13 198 0.0 3.2 0.00 0.33 0.00 91 1024.5
20260905225101 13 198 0.0 3.2 0.00 0.33 0.00 91 1024.5
20260905225000 13 198 0.0 3.2 0.00 0.33 0.00 91 1024.5
20260905224900 13 198 0.0 3.2 0.00 0.33 0.00 90 1024.5
20260905224800 13 198 0.0 3.2 0.00 0.33 0.00 90 1024.5
20260905224700 13 198 0.0 3.2 0.00 0.33 0.00 90 1024.5
20260905224601 13 198 0.0 3.2 0.00 0.33 0.00 90 1024.4
20260905224501 13 198 0.0 3.2 0.00 0.33 0.00 90 1024.5
20260905224401 13 198 0.0 3.2 0.00 0.33 0.00 90 1024.4
20260905224300 13 198 0.0 3.2 0.00 0.33 0.00 90 1024.4
20260905224201 13 198 0.0 3.2 0.00 0.33 0.00 90 1024.4
20260905224101 13 198 0.0 3.2 0.00 0.33 0.00 89 1024.4
20260905224001 13 198 0.0 3.2 0.00 0.33 0.00 89 1024.4
20260905223920 13 198 0.0 3.2 0.00 0.33 0.00 89 1024.4
20260905223916 13 198 0.0 3.2 0.00 0.33 0.00 89 1024.4
20260905223912 13 213 0.0 3.2 0.00 0.33 0.00 89 1024.4
20260905223600 13 217 0.0 3.2 0.00 0.33 0.00 89 1024.4
20260905223500 13 217 0.0 3.2 0.00 0.33 0.00 89 1024.4
20260905223401 13 217 0.0 3.2 0.00 0.33 0.00 89 1024.4
20260905223301 13 217 0.0 3.2 0.00 0.33 0.00 89 1024.4
20260905223202 13 217 0.0 3.2 0.00 0.33 0.00 89 1024.4
20260905223101 13 241 0.0 1.6 0.00 0.33 0.00 89 1024.4
20260905223001 13 241 0.0 1.6 0.00 0.33 0.00 89 1024.4
20260905222905 13 241 0.0 1.6 0.00 0.33 0.00 89 1024.4
20260905222800 13 241 0.0 1.6 0.00 0.33 0.00 88 1024.4
20260905222701 13 241 0.0 1.6 0.00 0.33 0.00 88 1024.4
20260905222602 13 249 0.0 1.6 0.00 0.33 0.00 88 1024.4
20260905222501 13 257 0.0 1.6 0.00 0.33 0.00 88 1024.4
20260905222403 13 257 0.0 1.6 0.00 0.33 0.00 88 1024.4
20260905222301 13 257 0.0 1.6 0.00 0.33 0.00 88 1024.3
20260905222201 13 257 0.0 1.6 0.00 0.33 0.00 88 1024.4
20260905222101 13 257 0.0 1.6 0.00 0.33 0.00 89 1024.3
20260905222001 13 257 0.0 1.6 0.00 0.33 0.00 89 1024.3
20260905221901 13 257 0.0 1.6 0.00 0.33 0.00 89 1024.3
20260905221801 13 257 0.0 1.6 0.00 0.33 0.00 89 1024.3
20260905221701 13 257 0.0 1.6 0.00 0.33 0.00 89 1024.3
20260905221601 13 257 0.0 1.6 0.00 0.33 0.00 89 1024.3
20260905221501 13 259 0.0 1.6 0.00 0.33 0.00 88 1024.3
20260905221400 13 259 0.0 3.2 0.00 0.33 0.00 88 1024.3
20260905221301 13 261 0.0 3.2 0.00 0.33 0.00 88 1024.3
20260905221200 13 261 0.0 3.2 0.00 0.33 0.00 88 1024.3
20260905221100 13 261 0.0 3.2 0.00 0.33 0.00 88 1024.3
20260905221001 13 261 0.0 3.2 0.00 0.33 0.00 88 1024.3
20260905220901 13 261 0.0 3.2 0.00 0.33 0.00 88 1024.3
20260905220800 13 261 0.0 3.2 0.00 0.33 0.00 88 1024.3
20260905220701 13 261 0.0 3.2 0.00 0.33 0.00 88 1024.3
20260905220651 14 261 0.0 0.0 0.00 0.33 0.00 87 1024.3
20260905220647 13 261 0.0 3.2 0.00 0.33 0.00 88 1024.3
20260905220642 13 261 0.0 3.2 0.00 0.33 0.00 88 1024.3
20260905220425 13 261 0.0 3.2 0.00 0.33 0.00 88 1024.3
20260905220417 14 261 0.0 0.0 0.00 0.33 0.00 88 1024.3
20260905220413 14 261 0.0 0.0 0.00 0.33 0.00 87 1024.3
20260905220001 14 261 0.0 0.0 0.00 0.33 0.00 88 1024.3
20260905215901 14 261 0.0 0.0 0.00 0.33 0.33 88 1024.2
20260905215801 14 261 0.0 0.0 0.00 0.33 0.33 88 1024.3
20260905215701 14 261 0.0 0.0 0.00 0.33 0.33 88 1024.2
20260905215601 14 261 0.0 0.0 0.00 0.33 0.33 88 1024.3
20260905215501 14 261 0.0 0.0 0.00 0.33 0.33 88 1024.2
20260905215401 14 261 0.0 0.0 0.00 0.33 0.33 88 1024.2
20260905215305 14 261 0.0 0.0 0.00 0.33 0.33 88 1024.2
20260905215202 14 261 0.0 1.6 0.00 0.33 0.33 87 1024.3
20260905215101 14 261 0.0 1.6 0.00 0.33 0.33 87 1024.2
20260905215000 14 262 0.0 1.6 0.00 0.33 0.33 87 1024.2
20260905214901 14 262 0.0 1.6 0.00 0.33 0.33 87 1024.2
20260905214801 14 262 0.0 1.6 0.00 0.33 0.33 87 1024.2
20260905214701 14 262 0.0 1.6 0.00 0.33 0.33 87 1024.2
20260905214601 14 262 0.0 1.6 0.00 0.33 0.33 87 1024.2
20260905214501 14 262 0.0 1.6 0.00 0.33 0.33 87 1024.2
20260905214401 14 261 0.0 1.6 0.00 0.33 0.33 86 1024.2
20260905214301 14 261 0.0 1.6 0.00 0.33 0.33 86 1024.2
20260905214201 14 261 0.0 1.6 0.00 0.33 0.33 86 1024.2
20260905214100 14 261 0.0 1.6 0.00 0.33 0.33 86 1024.2
20260905214000 14 261 0.0 1.6 0.00 0.33 0.33 86 1024.2
20260905213900 14 261 0.0 3.2 0.00 0.33 0.33 86 1024.2
20260905213800 15 261 0.0 3.2 0.00 0.33 0.33 86 1024.2
20260905213700 15 261 0.0 3.2 0.00 0.33 0.33 86 1024.2
20260905213601 15 261 1.6 3.2 0.00 0.33 0.33 86 1024.2
20260905213501 15 261 1.6 3.2 0.00 0.33 0.33 86 1024.1
20260905213402 15 261 1.6 3.2 0.00 0.33 0.33 86 1024.2
20260905213302 15 261 1.6 3.2 0.00 0.33 0.33 86 1024.1
20260905213201 15 262 1.6 3.2 0.00 0.33 0.33 86 1024.1
20260905213101 15 261 1.6 3.2 0.00 0.33 0.33 86 1024.1
20260905213001 15 261 1.6 3.2 0.00 0.33 0.33 86 1024.1
20260905212901 15 261 1.6 3.2 0.00 0.33 0.33 86 1024.1
20260905212802 15 261 1.6 3.2 0.00 0.33 0.33 87 1024.1
20260905212701 15 261 1.6 3.2 0.00 0.33 0.33 87 1024.1
20260905212601 15 261 1.6 3.2 0.00 0.33 0.33 87 1024.1
20260905212501 15 261 0.0 3.2 0.00 0.33 0.33 87 1024.1
20260905212401 15 261 0.0 3.2 0.00 0.33 0.33 87 1024.1
20260905212301 15 261 0.0 3.2 0.00 0.33 0.33 87 1024.0
20260905212200 15 261 0.0 3.2 0.00 0.33 0.33 87 1024.0
20260905212100 15 262 0.0 3.2 0.00 0.33 0.33 87 1024.0
20260905212001 15 262 0.0 3.2 0.00 0.33 0.33 87 1024.0
20260905211901 15 262 0.0 0.0 0.00 0.33 0.33 87 1024.0
20260905211800 15 262 0.0 0.0 0.00 0.33 0.33 87 1024.0
20260905211700 15 262 0.0 0.0 0.00 0.33 0.33 87 1024.0
20260905211600 15 262 0.0 0.0 0.00 0.33 0.33 87 1024.0
20260905211501 15 262 0.0 0.0 0.00 0.33 0.33 87 1024.0
20260905211401 15 262 0.0 0.0 0.00 0.33 0.33 87 1024.0
20260905211300 15 262 0.0 0.0 0.00 0.33 0.33 87 1024.0
20260905211201 15 262 0.0 0.0 0.00 0.33 0.33 87 1024.0
20260905211101 15 262 0.0 1.6 0.00 0.33 0.33 87 1024.0
20260905211001 15 262 0.0 1.6 0.00 0.33 0.33 87 1024.1
20260905210901 15 262 0.0 3.2 0.00 0.33 0.33 87 1024.0
20260905210801 15 262 0.0 3.2 0.00 0.33 0.33 87 1024.0
20260905210701 15 262 0.0 3.2 0.00 0.33 0.33 87 1024.0
20260905210601 15 262 0.0 3.2 0.00 0.33 0.33 87 1024.0
20260905210500 15 262 0.0 3.2 0.00 0.33 0.33 87 1024.0
20260905210401 15 262 0.0 3.2 0.00 0.33 0.33 87 1024.0
20260905210302 15 262 0.0 3.2 0.00 0.33 0.33 87 1024.0
20260905210201 15 262 0.0 3.2 0.00 0.33 0.33 87 1024.0
20260905210001 15 262 0.0 3.2 0.00 0.33 0.33 87 1024.0
20260905205901 15 262 1.6 3.2 0.00 0.33 0.33 87 1024.0
20260905205801 15 262 1.6 3.2 0.00 0.33 0.33 87 1023.9
20260905205701 15 262 1.6 3.2 0.00 0.33 0.33 87 1023.9
20260905205601 15 262 1.6 3.2 0.00 0.33 0.33 87 1023.9
20260905205501 15 262 1.6 3.2 0.00 0.33 0.33 87 1023.8
20260905205401 15 262 1.6 3.2 0.00 0.33 0.33 87 1023.9
20260905205301 15 262 1.6 3.2 0.00 0.33 0.33 87 1023.8
20260905205201 15 262 1.6 4.8 0.00 0.33 0.33 87 1023.8
20260905205101 15 262 1.6 6.4 0.00 0.33 0.33 87 1023.8
20260905205001 15 262 1.6 6.4 0.00 0.33 0.33 87 1023.8
20260905204924 15 262 1.6 6.4 0.00 0.33 0.33 87 1023.8
20260905204915 15 262 1.6 6.4 0.00 0.33 0.33 87 1023.9
20260905204911 15 262 1.6 6.4 0.00 0.33 0.33 87 1023.8
20260905204601 15 262 1.6 6.4 0.00 0.33 0.33 87 1023.9
20260905204501 15 262 1.6 6.4 0.00 0.33 0.33 87 1023.9
20260905204424 15 262 1.6 6.4 0.00 0.33 0.33 87 1023.9
20260905204417 15 262 1.6 6.4 0.00 0.33 0.33 87 1023.9
20260905204412 15 261 0.0 6.4 0.00 0.33 0.33 87 1023.9
20260905204101 15 281 0.0 3.2 0.00 0.33 0.33 86 1023.9
20260905204000 15 282 1.6 3.2 0.00 0.33 0.33 86 1024.0
20260905203901 15 282 0.0 3.2 0.00 0.33 0.33 86 1024.0
20260905203800 15 282 0.0 3.2 0.00 0.33 0.33 86 1024.0
20260905203704 16 282 0.0 3.2 0.00 0.33 0.33 86 1024.0
20260905203659 16 282 0.0 3.2 0.00 0.33 0.33 86 1024.0
20260905203557 16 282 0.0 3.2 0.00 0.33 0.33 86 1024.0
20260905203455 16 282 0.0 3.2 0.00 0.33 0.33 85 1024.0
20260905203355 16 282 0.0 3.2 0.00 0.33 0.33 85 1024.0
20260905203253 16 282 0.0 3.2 0.00 0.33 0.33 85 1024.0
20260905203201 16 282 0.0 3.2 0.00 0.33 0.33 86 1024.0
20260905203153 16 282 0.0 3.2 0.00 0.33 0.33 86 1024.0
20260905203051 16 282 0.0 3.2 0.00 0.33 0.33 86 1024.0
20260905202949 16 282 0.0 3.2 0.00 0.33 0.33 85 1023.9
20260905202850 16 281 1.6 3.2 0.00 0.33 0.33 85 1023.9
20260905202749 16 281 1.6 3.2 0.00 0.33 0.33 86 1023.9
20260905202701 16 281 1.6 3.2 0.00 0.33 0.33 86 1023.9
20260905202650 16 281 1.6 3.2 0.00 0.33 0.33 86 1023.9
20260905202549 16 281 1.6 3.2 0.00 0.33 0.33 85 1023.9
20260905202447 16 281 1.6 3.2 0.00 0.33 0.33 86 1023.9
20260905202345 16 281 1.6 3.2 0.00 0.33 0.33 85 1023.9
20260905202244 16 282 0.0 3.2 0.00 0.33 0.33 85 1023.9
20260905202201 16 282 0.0 3.2 0.00 0.33 0.33 85 1023.9
20260905202143 16 282 0.0 3.2 0.00 0.33 0.33 85 1023.9
20260905202043 16 282 0.0 3.2 0.00 0.33 0.33 85 1023.8
20260905201941 16 282 0.0 3.2 0.00 0.33 0.33 85 1023.8
20260905201841 16 282 0.0 3.2 0.00 0.33 0.33 84 1023.8
20260905201739 16 282 0.0 0.0 0.00 0.33 0.33 84 1023.8
20260905201700 16 282 0.0 0.0 0.00 0.33 0.33 84 1023.8
20260905201639 16 282 0.0 0.0 0.00 0.33 0.33 84 1023.8
20260905201539 16 282 0.0 0.0 0.00 0.33 0.33 84 1023.8
20260905201439 16 282 0.0 0.0 0.00 0.33 0.33 84 1023.8
20260905201339 16 282 0.0 0.0 0.00 0.33 0.33 84 1023.8
20260905201237 16 282 0.0 0.0 0.00 0.33 0.33 84 1023.8
20260905201201 16 282 0.0 0.0 0.00 0.33 0.33 84 1023.9
20260905201138 16 282 0.0 0.0 0.00 0.33 0.33 84 1023.9
20260905201035 16 282 0.0 0.0 0.00 0.33 0.33 84 1023.9
20260905200933 16 282 0.0 0.0 0.00 0.33 0.33 84 1023.9
20260905200929 16 282 0.0 0.0 0.00 0.33 0.33 83 1023.8
20260905200919 16 282 0.0 0.0 0.00 0.33 0.33 84 1023.8
20260905200911 16 282 0.0 0.0 0.00 0.33 0.33 83 1023.9
20260905200630 16 282 0.0 0.0 0.00 0.33 0.33 83 1023.8
20260905200529 16 282 0.0 0.0 0.00 0.33 0.33 83 1023.8
20260905200429 16 282 0.0 0.0 0.00 0.33 0.33 83 1023.8
20260905200329 16 282 0.0 0.0 0.00 0.33 0.33 83 1023.8
20260905200201 16 282 0.0 0.0 0.00 0.33 0.33 83 1023.8
20260905200129 16 282 0.0 0.0 0.00 0.33 0.33 83 1023.8
20260905200029 16 282 0.0 0.0 0.00 0.33 0.33 83 1023.8
20260905195929 16 282 0.0 1.6 0.00 0.33 0.33 83 1023.7
20260905195829 16 282 0.0 1.6 0.00 0.33 0.33 83 1023.7
20260905195729 16 282 0.0 3.2 0.00 0.33 0.33 83 1023.8
20260905195701 16 282 0.0 3.2 0.00 0.33 0.33 83 1023.7
20260905195629 16 282 0.0 3.2 0.00 0.33 0.33 83 1023.7
20260905195530 16 282 0.0 3.2 0.00 0.33 0.33 83 1023.7
20260905195429 16 282 0.0 3.2 0.00 0.33 0.33 83 1023.7
20260905195329 16 282 1.6 3.2 0.00 0.33 0.33 83 1023.6
20260905195201 16 282 1.6 3.2 0.00 0.33 0.33 83 1023.7
20260905195129 16 282 1.6 3.2 0.00 0.33 0.33 83 1023.7
20260905195029 16 282 1.6 3.2 0.00 0.33 0.33 83 1023.7
20260905194928 16 282 1.6 3.2 0.00 0.33 0.33 83 1023.8
20260905194828 16 282 1.6 3.2 0.00 0.33 0.33 83 1023.7
20260905194728 16 282 1.6 4.8 0.00 0.33 0.33 83 1023.7
20260905194701 16 282 1.6 4.8 0.00 0.33 0.33 82 1023.6
20260905194629 16 282 1.6 4.8 0.00 0.33 0.33 82 1023.6
20260905194529 16 282 1.6 4.8 0.00 0.33 0.33 82 1023.6
20260905194429 16 282 1.6 4.8 0.00 0.33 0.33 82 1023.6
20260905194329 16 282 1.6 4.8 0.00 0.33 0.33 82 1023.6
20260905194228 16 282 3.2 4.8 0.00 0.33 0.33 82 1023.6
20260905194201 17 282 3.2 4.8 0.00 0.33 0.33 82 1023.6
20260905194125 16 282 3.2 4.8 0.00 0.33 0.33 82 1023.6
20260905194023 17 282 3.2 4.8 0.00 0.33 0.33 82 1023.6
20260905193923 17 282 3.2 4.8 0.00 0.33 0.33 82 1023.6
20260905193822 17 282 3.2 4.8 0.00 0.33 0.33 82 1023.6
20260905193723 17 281 3.2 4.8 0.00 0.33 0.33 82 1023.6
20260905193700 17 308 3.2 4.8 0.00 0.33 0.33 82 1023.6
20260905193619 17 308 3.2 4.8 0.00 0.33 0.33 82 1023.6
20260905193517 17 308 3.2 4.8 0.00 0.33 0.33 82 1023.6
20260905193417 17 308 3.2 4.8 0.00 0.33 0.33 82 1023.6
20260905193317 17 308 3.2 4.8 0.00 0.33 0.33 82 1023.6
20260905193201 17 308 3.2 4.8 0.00 0.33 0.33 82 1023.6
20260905193113 17 308 3.2 4.8 0.00 0.33 0.33 82 1023.6
20260905193013 17 308 3.2 6.4 0.00 0.33 0.33 82 1023.6
20260905192913 17 308 3.2 6.4 0.00 0.33 0.33 82 1023.6
20260905192813 17 308 3.2 6.4 0.00 0.33 0.33 82 1023.6
20260905192701 17 309 3.2 6.4 0.00 0.33 0.33 82 1023.6
20260905192611 17 309 3.2 6.4 0.00 0.33 0.33 82 1023.5
20260905192509 17 309 3.2 6.4 0.00 0.33 0.33 82 1023.5
20260905192409 17 309 3.2 6.4 0.00 0.33 0.33 82 1023.5
20260905192309 17 309 3.2 6.4 0.00 0.33 0.33 82 1023.5
20260905192201 17 309 3.2 8.0 0.00 0.33 0.33 82 1023.5
20260905192109 17 309 3.2 8.0 0.00 0.33 0.33 82 1023.5
20260905192007 17 304 3.2 8.0 0.00 0.33 0.33 82 1023.5
20260905191907 17 304 3.2 8.0 0.00 0.33 0.33 82 1023.5
20260905191806 17 304 3.2 8.0 0.00 0.33 0.33 82 1023.5
20260905191701 17 319 3.2 8.0 0.00 0.33 0.33 82 1023.5
20260905191607 17 318 1.6 8.0 0.00 0.33 0.33 82 1023.4
20260905191505 17 322 1.6 8.0 0.00 0.33 0.33 82 1023.4
20260905191405 17 302 1.6 8.0 0.00 0.33 0.33 81 1023.4
20260905191305 17 301 1.6 8.0 0.00 0.33 0.33 81 1023.4
20260905191201 17 312 1.6 4.8 0.00 0.33 0.33 81 1023.4
20260905191108 17 312 1.6 4.8 0.00 0.33 0.33 81 1023.4
20260905191003 17 346 1.6 4.8 0.00 0.33 0.33 81 1023.4
20260905190903 17 355 1.6 4.8 0.00 0.33 0.33 81 1023.2
20260905190803 17 355 1.6 4.8 0.00 0.33 0.33 81 1023.2
20260905190701 17 355 1.6 4.8 0.00 0.33 0.33 81 1023.2
20260905190656 17 355 3.2 4.8 0.00 0.33 0.33 80 1023.2
20260905190645 17 355 1.6 4.8 0.00 0.33 0.33 81 1023.2
20260905190641 17 355 1.6 4.8 0.00 0.33 0.33 81 1023.2
20260905190426 17 355 1.6 4.8 0.00 0.33 0.33 80 1023.2
20260905190422 17 355 1.6 4.8 0.00 0.33 0.33 80 1023.2
20260905190414 17 355 3.2 4.8 0.00 0.33 0.33 80 1023.2
20260905190100 17 355 3.2 4.8 0.00 0.33 0.33 80 1023.1
20260905185958 17 355 3.2 4.8 0.00 0.33 0.33 80 1023.1
20260905185921 17 333 3.2 4.8 0.00 0.33 0.33 80 1023.1
20260905185916 17 333 3.2 6.4 0.00 0.33 0.33 80 1023.1
20260905185657 17 333 3.2 6.4 0.00 0.33 0.33 80 1023.1
20260905185555 17 309 3.2 6.4 0.00 0.33 0.33 79 1023.1
20260905185452 17 336 3.2 6.4 0.00 0.33 0.33 79 1023.1
20260905185419 17 325 3.2 6.4 0.00 0.33 0.33 79 1023.0
20260905185415 17 325 3.2 6.4 0.00 0.33 0.33 79 1023.0
20260905185152 17 325 3.2 6.4 0.00 0.33 0.33 79 1023.0
20260905185049 17 325 3.2 6.4 0.00 0.33 0.33 79 1023.0
20260905184946 17 325 3.2 6.4 0.00 0.33 0.33 78 1023.0
20260905184924 17 325 1.6 4.8 0.00 0.33 0.33 78 1022.9
20260905184921 17 325 3.2 6.4 0.00 0.33 0.33 78 1023.0
20260905184916 17 325 1.6 6.4 0.00 0.33 0.33 78 1023.0
20260905184645 17 325 1.6 4.8 0.00 0.33 0.33 78 1022.9
20260905184542 17 325 1.6 4.8 0.00 0.33 0.33 78 1022.9
20260905184440 17 325 1.6 4.8 0.00 0.33 0.33 78 1022.9
20260905184339 17 325 1.6 4.8 0.00 0.33 0.33 78 1022.9
20260905184239 17 325 1.6 3.2 0.00 0.33 0.33 78 1022.9
20260905184201 17 325 1.6 3.2 0.00 0.33 0.33 78 1022.9
20260905184139 17 325 1.6 3.2 0.00 0.33 0.33 78 1022.9
20260905184038 17 325 1.6 4.8 0.00 0.33 0.33 78 1022.8
20260905183934 18 325 1.6 6.4 0.00 0.33 0.33 78 1022.8
20260905183829 18 325 1.6 6.4 0.00 0.33 0.33 77 1022.8
20260905183729 18 325 1.6 6.4 0.00 0.33 0.33 77 1022.7
20260905183700 18 325 1.6 6.4 0.00 0.33 0.33 77 1022.8
20260905183629 18 325 1.6 6.4 0.00 0.33 0.33 77 1022.8
20260905183530 18 325 3.2 6.4 0.00 0.33 0.33 77 1022.8
20260905183429 18 325 3.2 6.4 0.00 0.33 0.33 77 1022.8
20260905183328 18 325 3.2 6.4 0.00 0.33 0.33 77 1022.8
20260905183201 18 325 3.2 6.4 0.00 0.33 0.33 77 1022.8
20260905183129 18 325 3.2 8.0 0.00 0.33 0.33 77 1022.8
20260905183029 18 302 3.2 8.0 0.00 0.33 0.33 77 1022.7
20260905182929 18 302 3.2 8.0 0.00 0.33 0.33 77 1022.7
20260905182921 18 298 3.2 8.0 0.00 0.33 0.33 76 1022.7
20260905182917 18 296 3.2 8.0 0.00 0.33 0.33 76 1022.7
20260905182629 18 296 3.2 8.0 0.00 0.33 0.33 76 1022.7
20260905182529 18 307 3.2 8.0 0.00 0.33 0.33 76 1022.7
20260905182429 18 325 3.2 8.0 0.00 0.33 0.33 76 1022.7
20260905182329 18 302 3.2 8.0 0.00 0.33 0.33 76 1022.7
20260905182229 18 304 4.8 11.3 0.00 0.33 0.33 76 1022.7
20260905182201 18 315 4.8 11.3 0.00 0.33 0.33 76 1022.7
20260905182129 18 301 4.8 11.3 0.00 0.33 0.33 76 1022.7
20260905182029 18 298 4.8 11.3 0.00 0.33 0.33 76 1022.6
20260905181929 18 294 4.8 16.1 0.00 0.33 0.33 76 1022.6
20260905181829 18 294 4.8 16.1 0.00 0.33 0.33 75 1022.6
20260905181729 18 269 6.4 16.1 0.00 0.33 0.33 75 1022.6
20260905181700 18 265 6.4 16.1 0.00 0.33 0.33 75 1022.6
20260905181624 18 265 6.4 16.1 0.00 0.33 0.33 75 1022.5
20260905181524 18 264 6.4 16.1 0.00 0.33 0.33 75 1022.5
20260905181425 18 304 6.4 16.1 0.00 0.33 0.33 75 1022.5
20260905181325 18 276 6.4 16.1 0.00 0.33 0.33 75 1022.5
20260905181223 18 281 8.0 16.1 0.00 0.33 0.33 75 1022.5
20260905181201 18 270 8.0 16.1 0.00 0.33 0.33 75 1022.5
20260905181117 18 289 8.0 16.1 0.00 0.33 0.33 75 1022.5
20260905181017 18 266 8.0 16.1 0.00 0.33 0.33 74 1022.4
20260905180917 18 267 8.0 17.7 0.00 0.33 0.33 74 1022.4
20260905180817 18 235 8.0 17.7 0.00 0.33 0.33 74 1022.4
20260905180717 18 278 8.0 17.7 0.00 0.33 0.33 74 1022.4
20260905180700 18 265 8.0 17.7 0.00 0.33 0.33 74 1022.4
20260905180651 18 252 6.4 17.7 0.00 0.33 0.33 74 1022.3
20260905180645 18 244 8.0 17.7 0.00 0.33 0.33 74 1022.3
20260905180641 18 217 6.4 17.7 0.00 0.33 0.33 74 1022.3
20260905180423 18 263 6.4 17.7 0.00 0.33 0.33 74 1022.3
20260905180419 18 266 6.4 17.7 0.00 0.33 0.33 74 1022.3
20260905180415 18 254 6.4 17.7 0.00 0.33 0.33 74 1022.3
20260905180113 18 227 6.4 17.7 0.00 0.33 0.33 73 1022.2
20260905180013 18 289 6.4 14.5 0.00 0.33 0.33 73 1022.3
20260905175913 18 205 6.4 12.9 0.00 0.33 0.33 73 1022.2
20260905175811 18 251 6.4 12.9 0.00 0.33 0.33 73 1022.3
20260905175705 18 259 4.8 12.9 0.00 0.33 0.33 73 1022.3
20260905175611 18 261 6.4 12.9 0.00 0.33 0.33 73 1022.3
20260905175511 18 246 6.4 12.9 0.00 0.33 0.33 73 1022.3
20260905175409 19 266 6.4 12.9 0.00 0.33 0.33 72 1022.2
20260905175309 19 233 6.4 12.9 0.00 0.33 0.33 72 1022.2
20260905175209 19 202 8.0 14.5 0.00 0.33 0.33 72 1022.2
20260905175203 19 262 8.0 14.5 0.00 0.33 0.33 72 1022.2
20260905175110 19 241 8.0 16.1 0.00 0.33 0.33 72 1022.1
20260905175008 19 271 8.0 16.1 0.00 0.33 0.33 71 1022.1
20260905174906 19 236 9.7 16.1 0.00 0.33 0.33 71 1022.1
20260905174807 19 270 9.7 16.1 0.00 0.33 0.33 71 1022.1
20260905174701 19 240 9.7 16.1 0.00 0.33 0.33 71 1022.1
20260905174605 19 224 9.7 16.1 0.00 0.33 0.33 71 1022.0
20260905174502 19 233 9.7 16.1 0.00 0.33 0.33 71 1022.0
20260905174403 19 217 9.7 17.7 0.00 0.33 0.33 71 1022.0
20260905174303 19 261 8.0 17.7 0.00 0.33 0.33 71 1022.0
20260905174207 19 234 8.0 17.7 0.00 0.33 0.33 70 1022.0
20260905174203 19 251 8.0 17.7 0.00 0.33 0.33 70 1022.0
20260905174103 19 225 8.0 17.7 0.00 0.33 0.33 70 1021.9
20260905174001 19 216 8.0 19.3 0.00 0.33 0.33 70 1021.9
20260905173901 19 256 9.7 19.3 0.00 0.33 0.33 70 1021.9
20260905173801 19 213 9.7 24.1 0.00 0.33 0.33 70 1021.9
20260905173702 19 261 9.7 24.1 0.00 0.33 0.33 70 1021.9
20260905173601 19 242 8.0 24.1 0.00 0.33 0.33 70 1021.9
20260905173501 19 244 9.7 24.1 0.00 0.33 0.33 70 1021.9
20260905173401 19 206 9.7 24.1 0.00 0.33 0.33 70 1021.8
20260905173301 19 225 9.7 24.1 0.00 0.33 0.33 70 1021.8
20260905173201 19 224 9.7 24.1 0.00 0.33 0.33 70 1021.8
20260905173101 19 216 9.7 24.1 0.00 0.33 0.33 70 1021.8
20260905173001 19 212 9.7 24.1 0.00 0.33 0.33 70 1021.8
20260905172901 19 251 9.7 24.1 0.00 0.33 0.33 69 1021.8
20260905172801 20 240 9.7 17.7 0.00 0.33 0.33 69 1021.8
20260905172700 20 245 11.3 17.7 0.00 0.33 0.33 69 1021.8
20260905172601 20 199 11.3 17.7 0.00 0.33 0.33 69 1021.8
20260905172501 20 273 11.3 17.7 0.00 0.33 0.33 69 1021.8
20260905172401 20 206 11.3 17.7 0.00 0.33 0.33 69 1021.7
20260905172300 20 240 11.3 19.3 0.00 0.33 0.33 68 1021.8
20260905172200 20 242 11.3 19.3 0.00 0.33 0.33 68 1021.8
20260905172100 20 247 9.7 19.3 0.00 0.33 0.33 69 1021.8
20260905172000 20 202 9.7 19.3 0.00 0.33 0.33 68 1021.7
20260905171901 20 243 9.7 19.3 0.00 0.33 0.33 68 1021.7
20260905171801 20 225 9.7 19.3 0.00 0.33 0.33 68 1021.7
20260905171701 20 223 9.7 19.3 0.00 0.33 0.33 68 1021.7
20260905171601 20 211 9.7 22.5 0.00 0.33 0.33 68 1021.7
20260905171501 20 223 9.7 22.5 0.00 0.33 0.33 67 1021.7
20260905171401 20 200 9.7 22.5 0.00 0.33 0.33 67 1021.7
20260905171301 20 202 9.7 22.5 0.00 0.33 0.33 67 1021.6
20260905171200 20 225 11.3 22.5 0.00 0.33 0.33 67 1021.6
20260905171101 20 242 11.3 22.5 0.00 0.33 0.33 67 1021.6
20260905171001 20 233 11.3 22.5 0.00 0.33 0.33 66 1021.6
20260905170902 20 192 11.3 22.5 0.00 0.33 0.33 67 1021.6
20260905170800 20 268 11.3 22.5 0.00 0.33 0.33 66 1021.6
20260905170701 20 225 11.3 22.5 0.00 0.33 0.33 66 1021.5
20260905170601 20 209 11.3 24.1 0.00 0.33 0.33 66 1021.6
20260905170501 20 236 11.3 24.1 0.00 0.33 0.33 65 1021.6
20260905170419 20 221 11.3 24.1 0.00 0.33 0.33 65 1021.6
20260905170415 20 220 11.3 24.1 0.00 0.33 0.33 65 1021.6
20260905170411 20 229 11.3 24.1 0.00 0.33 0.33 65 1021.7
20260905170101 20 228 11.3 24.1 0.00 0.33 0.33 65 1021.7
20260905170001 20 226 9.7 24.1 0.00 0.33 0.33 65 1021.6
20260905165920 20 198 9.7 24.1 0.00 0.33 0.33 65 1021.6
20260905165916 20 219 9.7 24.1 0.00 0.33 0.33 65 1021.6
20260905165912 21 219 9.7 24.1 0.00 0.33 0.33 64 1021.7
20260905165601 21 217 9.7 25.7 0.00 0.33 0.33 64 1021.7
20260905165500 21 212 11.3 25.7 0.00 0.33 0.33 64 1021.6
20260905165400 21 247 9.7 25.7 0.00 0.33 0.33 64 1021.7
20260905165300 21 230 11.3 25.7 0.00 0.33 0.33 63 1021.7
20260905165201 21 221 11.3 25.7 0.00 0.33 0.33 63 1021.8
20260905165101 21 240 11.3 25.7 0.00 0.33 0.33 64 1021.6
20260905165001 21 217 11.3 25.7 0.00 0.33 0.33 63 1021.6
20260905164920 21 270 12.9 25.7 0.00 0.33 0.33 63 1021.6
20260905164916 21 251 12.9 25.7 0.00 0.33 0.33 63 1021.6
20260905164912 21 233 12.9 25.7 0.00 0.33 0.33 63 1021.6
20260905164657 21 270 12.9 25.7 0.00 0.33 0.33 63 1021.6
20260905164557 21 196 12.9 25.7 0.00 0.33 0.33 63 1021.6
20260905164457 21 219 12.9 25.7 0.00 0.33 0.33 63 1021.6
20260905164423 21 226 12.9 25.7 0.00 0.33 0.33 64 1021.6
20260905164417 21 215 12.9 25.7 0.00 0.33 0.33 63 1021.6
20260905164413 21 236 12.9 25.7 0.00 0.33 0.33 63 1021.7
20260905164157 21 226 12.9 25.7 0.00 0.33 0.33 64 1021.6
20260905164054 21 240 12.9 25.7 0.00 0.33 0.33 64 1021.7
20260905163955 21 238 12.9 25.7 0.00 0.33 0.33 64 1021.6
20260905163855 21 222 12.9 25.7 0.00 0.33 0.33 64 1021.6
20260905163755 21 246 11.3 25.7 0.00 0.33 0.33 64 1021.6
20260905163701 21 194 11.3 24.1 0.00 0.33 0.33 64 1021.6
20260905163655 21 217 11.3 24.1 0.00 0.33 0.33 65 1021.6
20260905163554 21 236 11.3 24.1 0.00 0.33 0.33 65 1021.6
20260905163453 21 228 11.3 24.1 0.00 0.33 0.33 65 1021.6
20260905163421 21 256 11.3 22.5 0.00 0.33 0.33 65 1021.6
20260905163417 21 255 11.3 22.5 0.00 0.33 0.33 65 1021.6
20260905163413 21 261 11.3 22.5 0.00 0.33 0.33 65 1021.5
20260905163153 21 233 11.3 22.5 0.00 0.33 0.33 65 1021.6
20260905163053 21 211 11.3 22.5 0.00 0.33 0.33 64 1021.6
20260905162953 21 276 11.3 22.5 0.00 0.33 0.33 65 1021.6
20260905162853 21 188 11.3 22.5 0.00 0.33 0.33 64 1021.3
20260905162753 22 265 11.3 22.5 0.00 0.33 0.33 64 1021.3
20260905162701 22 217 11.3 22.5 0.00 0.33 0.33 64 1021.5
20260905162650 22 209 11.3 22.5 0.00 0.33 0.33 64 1021.5
20260905162550 22 213 11.3 22.5 0.00 0.33 0.33 65 1021.5
20260905162448 22 282 11.3 22.5 0.00 0.33 0.33 65 1021.5
20260905162348 22 237 12.9 22.5 0.00 0.33 0.33 64 1021.5
20260905162248 22 244 12.9 24.1 0.00 0.33 0.33 65 1021.3
20260905162200 22 213 12.9 24.1 0.00 0.33 0.33 65 1021.3
20260905162149 22 240 12.9 24.1 0.00 0.33 0.33 65 1021.3
20260905162048 22 229 12.9 24.1 0.00 0.33 0.33 67 1021.3
20260905161949 22 282 12.9 24.1 0.00 0.33 0.33 69 1021.3
20260905161849 22 304 12.9 24.1 0.00 0.33 0.33 69 1021.3
20260905161749 22 200 12.9 24.1 0.00 0.33 0.33 70 1021.3
20260905161701 22 225 12.9 24.1 0.00 0.33 0.33 70 1021.3
20260905161649 22 257 12.9 24.1 0.00 0.33 0.33 70 1021.3
20260905161548 22 260 12.9 24.1 0.00 0.33 0.33 70 1021.3
20260905161448 22 230 12.9 24.1 0.00 0.33 0.33 70 1021.3
20260905161349 22 261 11.3 24.1 0.00 0.33 0.33 69 1021.2
20260905161249 22 274 11.3 24.1 0.00 0.33 0.33 69 1021.3
20260905161201 22 227 11.3 24.1 0.00 0.33 0.33 69 1021.3
20260905161149 22 242 11.3 24.1 0.00 0.33 0.33 69 1021.3
20260905161049 22 279 11.3 24.1 0.00 0.33 0.33 69 1021.2
20260905160949 22 215 11.3 24.1 0.00 0.33 0.33 69 1021.2
20260905160920 22 275 11.3 24.1 0.00 0.33 0.33 68 1021.2
20260905160916 22 219 11.3 24.1 0.00 0.33 0.33 69 1021.2
20260905160912 22 237 11.3 24.1 0.00 0.33 0.33 69 1021.2
20260905160648 22 219 11.3 24.1 0.00 0.33 0.33 68 1021.2
20260905160548 22 287 11.3 24.1 0.00 0.33 0.33 68 1021.2
20260905160442 22 257 12.9 22.5 0.00 0.33 0.33 68 1021.1
20260905160423 22 200 12.9 25.7 0.00 0.33 0.33 68 1021.2
20260905160417 22 246 12.9 25.7 0.00 0.33 0.33 68 1021.1
20260905160413 22 213 12.9 25.7 0.00 0.33 0.33 68 1021.1
20260905160143 22 224 12.9 25.7 0.00 0.33 0.33 68 1021.2
20260905160042 22 223 12.9 25.7 0.00 0.33 0.33 68 1021.2
20260905155942 22 254 12.9 25.7 0.00 0.33 0.33 69 1021.1
20260905155842 22 233 12.9 25.7 0.00 0.33 0.33 68 1021.1
20260905155743 22 276 12.9 25.7 0.00 0.33 0.33 68 1021.0
20260905155701 22 269 12.9 25.7 0.00 0.33 0.33 68 1021.1
20260905155643 22 221 12.9 25.7 0.00 0.33 0.33 68 1021.1
20260905155543 22 243 12.9 25.7 0.00 0.33 0.33 67 1021.1
20260905155443 22 224 11.3 25.7 0.00 0.33 0.33 67 1021.1
20260905155343 22 261 12.9 25.7 0.00 0.33 0.33 67 1021.1
20260905155238 22 261 12.9 25.7 0.00 0.33 0.33 67 1021.0
20260905155201 22 224 12.9 25.7 0.00 0.33 0.33 68 1021.1
20260905155138 22 190 12.9 25.7 0.00 0.33 0.33 68 1021.1
20260905155039 22 239 12.9 25.7 0.00 0.33 0.33 68 1021.0
20260905154939 22 213 11.3 25.7 0.00 0.33 0.33 67 1021.0
20260905154838 22 265 12.9 25.7 0.00 0.33 0.33 68 1021.0
20260905154738 22 260 11.3 25.7 0.00 0.33 0.33 67 1021.0
20260905154700 22 232 11.3 25.7 0.00 0.33 0.33 68 1021.0
20260905154638 22 266 11.3 25.7 0.00 0.33 0.33 68 1021.0
20260905154538 22 230 9.7 25.7 0.00 0.33 0.33 67 1021.0
20260905154438 22 211 9.7 25.7 0.00 0.33 0.33 67 1021.1
20260905154338 22 225 8.0 24.1 0.00 0.33 0.33 67 1021.0
20260905154238 22 263 8.0 20.9 0.00 0.33 0.33 67 1021.0
20260905154200 22 225 8.0 20.9 0.00 0.33 0.33 67 1021.1
20260905154139 22 236 8.0 20.9 0.00 0.33 0.33 67 1021.1
20260905154039 22 213 6.4 17.7 0.00 0.33 0.33 66 1021.1
20260905153939 22 200 6.4 17.7 0.00 0.33 0.33 66 1021.1
20260905153838 22 238 6.4 17.7 0.00 0.33 0.33 65 1021.1
20260905153738 22 221 6.4 14.5 0.00 0.33 0.33 65 1021.1
20260905153702 22 220 6.4 14.5 0.00 0.33 0.33 64 1021.0
20260905153638 22 219 6.4 14.5 0.00 0.33 0.33 64 1021.0
20260905153538 22 225 6.4 14.5 0.00 0.33 0.33 64 1021.0
20260905153438 22 222 6.4 14.5 0.00 0.33 0.33 64 1021.1
20260905153334 22 252 6.4 14.5 0.00 0.33 0.33 64 1021.0
20260905153234 22 288 4.8 14.5 0.00 0.33 0.33 64 1021.1
20260905153200 22 281 4.8 11.3 0.00 0.33 0.33 64 1021.1
20260905153135 22 256 4.8 11.3 0.00 0.33 0.33 64 1021.1
20260905153034 22 242 4.8 11.3 0.00 0.33 0.33 64 1021.1
20260905152935 22 260 4.8 11.3 0.00 0.33 0.33 63 1021.1
20260905152835 22 252 4.8 11.3 0.00 0.33 0.33 63 1021.1
20260905152735 22 301 6.4 12.9 0.00 0.33 0.33 62 1021.1
20260905152701 22 306 6.4 12.9 0.00 0.33 0.33 62 1021.1
20260905152635 22 229 6.4 16.1 0.00 0.33 0.33 63 1021.1
20260905152534 22 229 6.4 16.1 0.00 0.33 0.33 63 1021.1
20260905152434 22 262 8.0 17.7 0.00 0.33 0.33 63 1021.1
20260905152422 23 263 9.7 17.7 0.00 0.33 0.33 61 1021.0
20260905152416 22 254 8.0 17.7 0.00 0.33 0.33 62 1021.1
20260905152413 23 245 8.0 17.7 0.00 0.33 0.33 61 1021.0
20260905152134 23 225 9.7 17.7 0.00 0.33 0.33 61 1021.0
20260905152035 23 229 9.7 19.3 0.00 0.33 0.33 61 1021.0
20260905151934 23 289 9.7 19.3 0.00 0.33 0.33 61 1021.0
20260905151834 23 248 9.7 19.3 0.00 0.33 0.33 61 1021.0
20260905151734 23 251 9.7 19.3 0.00 0.33 0.33 60 1021.0
20260905151701 23 241 9.7 19.3 0.00 0.33 0.33 60 1021.0
20260905151634 23 306 9.7 19.3 0.00 0.33 0.33 60 1021.0
20260905151538 23 218 9.7 19.3 0.00 0.33 0.33 59 1021.0
20260905151431 23 242 9.7 19.3 0.00 0.33 0.33 59 1021.0
20260905151331 23 286 9.7 19.3 0.00 0.33 0.33 59 1021.0
20260905151230 23 277 9.7 19.3 0.00 0.33 0.33 60 1021.0
20260905151201 23 250 9.7 19.3 0.00 0.33 0.33 60 1021.0
20260905151129 23 228 9.7 19.3 0.00 0.33 0.33 59 1021.0
20260905151029 23 264 11.3 20.9 0.00 0.33 0.33 59 1021.0
20260905150929 23 284 11.3 22.5 0.00 0.33 0.33 58 1021.1
20260905150828 23 235 11.3 22.5 0.00 0.33 0.33 59 1021.1
20260905150728 23 231 11.3 22.5 0.00 0.33 0.33 59 1021.1
20260905150701 23 220 11.3 22.5 0.00 0.33 0.33 59 1021.1
20260905150628 23 257 11.3 22.5 0.00 0.33 0.33 59 1021.1
20260905150532 23 221 11.3 22.5 0.00 0.33 0.33 59 1021.1
20260905150429 23 225 11.3 22.5 0.00 0.33 0.33 58 1021.1
20260905150329 23 229 11.3 24.1 0.00 0.33 0.33 58 1021.1
20260905150228 23 226 11.3 24.1 0.00 0.33 0.33 58 1021.1
20260905150201 23 255 11.3 24.1 0.00 0.33 0.33 58 1021.1
20260905150128 23 225 11.3 24.1 0.00 0.33 0.33 58 1021.1
20260905150030 23 225 11.3 24.1 0.00 0.33 0.33 59 1021.2
20260905145928 23 260 11.3 24.1 0.00 0.33 0.33 58 1021.1
20260905145828 23 285 11.3 24.1 0.00 0.33 0.33 58 1021.0
20260905145729 23 238 11.3 24.1 0.00 0.33 0.33 58 1021.1
20260905145700 23 257 11.3 24.1 0.00 0.33 0.33 58 1021.0
20260905145629 23 231 11.3 24.1 0.00 0.33 0.33 57 1021.1
20260905145528 23 225 11.3 24.1 0.00 0.33 0.33 57 1021.1
20260905145426 23 248 11.3 24.1 0.00 0.33 0.33 58 1021.1
20260905145326 23 252 9.7 22.5 0.00 0.33 0.33 57 1021.0
20260905145226 23 223 9.7 22.5 0.00 0.33 0.33 56 1021.0
20260905145201 23 227 11.3 22.5 0.00 0.33 0.33 56 1021.0
20260905145126 23 207 11.3 22.5 0.00 0.33 0.33 57 1021.0
20260905145026 23 234 11.3 22.5 0.00 0.33 0.33 58 1021.0
20260905144926 23 214 9.7 22.5 0.00 0.33 0.33 58 1021.0
20260905144826 23 233 9.7 17.7 0.00 0.33 0.33 57 1021.0
20260905144726 23 213 9.7 17.7 0.00 0.33 0.33 57 1021.1
20260905144701 23 244 11.3 17.7 0.00 0.33 0.33 57 1021.0
20260905144627 23 210 11.3 17.7 0.00 0.33 0.33 58 1021.0
20260905144525 23 211 9.7 17.7 0.00 0.33 0.33 58 1021.0
20260905144424 23 284 9.7 17.7 0.00 0.33 0.33 58 1021.1
20260905144319 23 207 9.7 17.7 0.00 0.33 0.33 56 1021.1
20260905144219 23 221 9.7 17.7 0.00 0.33 0.33 56 1021.0
20260905144201 23 272 9.7 17.7 0.00 0.33 0.33 56 1021.0
20260905144118 23 265 9.7 17.7 0.00 0.33 0.33 55 1021.1
20260905144019 24 231 9.7 17.7 0.00 0.33 0.33 55 1021.0
20260905143918 24 233 9.7 17.7 0.00 0.33 0.33 57 1021.1
20260905143819 24 262 9.7 19.3 0.00 0.33 0.33 56 1021.1
20260905143716 24 225 9.7 19.3 0.00 0.33 0.33 56 1021.1
20260905143700 24 250 9.7 19.3 0.00 0.33 0.33 56 1021.1
20260905143614 24 221 9.7 19.3 0.00 0.33 0.33 56 1021.1
20260905143514 24 212 9.7 19.3 0.00 0.33 0.33 56 1021.1
20260905143414 24 281 9.7 19.3 0.00 0.33 0.33 55 1021.1
20260905143314 24 285 9.7 19.3 0.00 0.33 0.33 55 1021.1
20260905143215 24 269 9.7 19.3 0.00 0.33 0.33 56 1021.2
20260905143200 24 247 9.7 19.3 0.00 0.33 0.33 56 1021.2
20260905143115 24 259 9.7 19.3 0.00 0.33 0.33 55 1021.2
20260905143013 24 255 9.7 20.9 0.00 0.33 0.33 56 1021.2
20260905142913 24 295 9.7 20.9 0.00 0.33 0.33 55 1021.2
20260905142811 24 210 11.3 20.9 0.00 0.33 0.33 57 1021.1
20260905142701 24 229 11.3 20.9 0.00 0.33 0.33 55 1021.1
20260905142608 24 215 11.3 20.9 0.00 0.33 0.33 54 1021.2
20260905142507 24 260 11.3 20.9 0.00 0.33 0.33 54 1021.1
20260905142407 24 243 11.3 20.9 0.00 0.33 0.33 54 1021.2
20260905142307 24 342 12.9 20.9 0.00 0.33 0.33 53 1021.1
20260905142206 24 280 12.9 20.9 0.00 0.33 0.33 54 1021.2
20260905142200 24 302 12.9 20.9 0.00 0.33 0.33 54 1021.2
20260905142106 24 270 12.9 20.9 0.00 0.33 0.33 55 1021.1
20260905142004 24 257 12.9 20.9 0.00 0.33 0.33 54 1021.1
20260905141925 24 254 11.3 20.9 0.00 0.33 0.33 54 1021.1
20260905141919 24 243 12.9 20.9 0.00 0.33 0.33 54 1021.1
20260905141915 24 219 12.9 20.9 0.00 0.33 0.33 54 1021.2
20260905141911 24 235 11.3 20.9 0.00 0.33 0.33 54 1021.1
20260905141603 24 244 11.3 20.9 0.00 0.33 0.33 55 1021.1
20260905141502 24 256 12.9 20.9 0.00 0.33 0.33 53 1021.1
20260905141420 24 257 11.3 20.9 0.00 0.33 0.33 53 1021.2
20260905141416 24 271 11.3 20.9 0.00 0.33 0.33 54 1021.2
20260905141412 24 290 11.3 20.9 0.00 0.33 0.33 54 1021.2
20260905141101 24 257 9.7 20.9 0.00 0.33 0.33 53 1021.2
20260905141001 23 264 9.7 20.9 0.00 0.33 0.33 55 1021.2
20260905140901 23 232 9.7 17.7 0.00 0.33 0.33 55 1021.2
20260905140801 23 219 9.7 20.9 0.00 0.33 0.33 55 1021.2
20260905140701 23 233 11.3 20.9 0.00 0.33 0.33 55 1021.3
20260905140601 23 273 11.3 20.9 0.00 0.33 0.33 55 1021.3
20260905140501 23 211 11.3 20.9 0.00 0.33 0.33 56 1021.3
20260905140401 23 257 11.3 20.9 0.00 0.33 0.33 56 1021.3
20260905140301 23 225 11.3 20.9 0.00 0.33 0.33 54 1021.3
20260905140201 23 217 12.9 20.9 0.00 0.33 0.33 54 1021.3
20260905140001 23 284 12.9 22.5 0.00 0.33 0.33 55 1021.3
20260905135901 23 234 12.9 22.5 0.00 0.33 0.33 56 1021.3
20260905135801 23 278 12.9 22.5 0.00 0.33 0.33 55 1021.3
20260905135701 23 239 12.9 22.5 0.00 0.33 0.33 54 1021.3
20260905135601 23 219 12.9 22.5 0.00 0.33 0.33 55 1021.3
20260905135506 23 260 12.9 22.5 0.00 0.33 0.33 55 1021.3
20260905135400 23 286 11.3 22.5 0.00 0.33 0.33 55 1021.3
20260905135300 23 269 12.9 22.5 0.00 0.33 0.33 54 1021.3
20260905135205 23 260 11.3 22.5 0.00 0.33 0.33 55 1021.2
20260905135201 23 260 11.3 22.5 0.00 0.33 0.33 55 1021.2
20260905135101 23 292 11.3 22.5 0.00 0.33 0.33 55 1021.3
20260905135003 23 284 11.3 20.9 0.00 0.33 0.33 55 1021.3
20260905134857 23 232 9.7 20.9 0.00 0.33 0.33 56 1021.3
20260905134756 23 238 11.3 20.9 0.00 0.33 0.33 55 1021.3
20260905134700 23 257 9.7 20.9 0.00 0.33 0.33 56 1021.5
20260905134656 23 248 9.7 20.9 0.00 0.33 0.33 56 1021.5
20260905134556 23 271 9.7 20.9 0.00 0.33 0.33 55 1021.3
20260905134457 23 272 9.7 20.9 0.00 0.33 0.33 56 1021.3
20260905134350 23 272 9.7 20.9 0.00 0.33 0.33 56 1021.3
20260905134248 23 280 9.7 20.9 0.00 0.33 0.33 56 1021.5
20260905134202 23 226 9.7 17.7 0.00 0.33 0.33 56 1021.3
20260905134149 23 238 9.7 17.7 0.00 0.33 0.33 57 1021.3
20260905134048 23 225 11.3 17.7 0.00 0.33 0.33 56 1021.3
20260905133951 23 292 11.3 17.7 0.00 0.33 0.33 57 1021.3
20260905133844 23 251 12.9 19.3 0.00 0.33 0.33 56 1021.3
20260905133744 23 290 11.3 19.3 0.00 0.33 0.33 56 1021.3
20260905133701 23 287 11.3 19.3 0.00 0.33 0.33 57 1021.5
20260905133644 23 264 11.3 19.3 0.00 0.33 0.33 57 1021.5
20260905133544 23 269 11.3 19.3 0.00 0.33 0.33 57 1021.3
20260905133441 23 297 11.3 19.3 0.00 0.33 0.33 56 1021.3
20260905133421 23 310 11.3 19.3 0.00 0.33 0.33 57 1021.3
20260905133416 23 283 11.3 19.3 0.00 0.33 0.33 57 1021.5
20260905133412 23 306 11.3 19.3 0.00 0.33 0.33 57 1021.5
20260905133136 23 278 11.3 19.3 0.00 0.33 0.33 56 1021.3
20260905133036 23 241 11.3 19.3 0.00 0.33 0.33 56 1021.5
20260905132936 23 260 9.7 19.3 0.00 0.33 0.33 58 1021.3
20260905132836 23 281 9.7 17.7 0.00 0.33 0.33 59 1021.5
20260905132736 23 275 9.7 19.3 0.00 0.33 0.33 60 1021.3
20260905132701 23 260 9.7 19.3 0.00 0.33 0.33 60 1021.3
20260905132634 23 267 9.7 19.3 0.00 0.33 0.33 60 1021.3
20260905132535 23 285 9.7 19.3 0.00 0.33 0.33 59 1021.3
20260905132434 23 209 9.7 19.3 0.00 0.33 0.33 60 1021.3
20260905132334 23 261 9.7 19.3 0.00 0.33 0.33 60 1021.3
20260905132235 23 306 9.7 19.3 0.00 0.33 0.33 61 1021.3
20260905132201 22 255 9.7 19.3 0.00 0.33 0.33 60 1021.5
20260905132132 22 281 9.7 20.9 0.00 0.33 0.33 60 1021.5
20260905132032 22 233 9.7 20.9 0.00 0.33 0.33 60 1021.3
20260905131932 22 229 9.7 20.9 0.00 0.33 0.33 59 1021.5
20260905131832 22 279 11.3 20.9 0.00 0.33 0.33 59 1021.5
20260905131732 22 221 11.3 20.9 0.00 0.33 0.33 60 1021.6
20260905131700 22 288 11.3 20.9 0.00 0.33 0.33 60 1021.6
20260905131632 22 210 11.3 22.5 0.00 0.33 0.33 60 1021.6
20260905131530 22 227 11.3 22.5 0.00 0.33 0.33 60 1021.6
20260905131429 22 274 11.3 22.5 0.00 0.33 0.33 59 1021.5
20260905131423 22 271 11.3 22.5 0.00 0.33 0.33 59 1021.5
20260905131416 22 281 11.3 22.5 0.00 0.33 0.33 58 1021.3
20260905131412 22 284 11.3 22.5 0.00 0.33 0.33 59 1021.5
20260905131130 22 248 11.3 22.5 0.00 0.33 0.33 59 1021.5
20260905131029 22 278 11.3 22.5 0.00 0.33 0.33 59 1021.3
20260905130928 22 259 11.3 22.5 0.00 0.33 0.33 59 1021.5
20260905130829 22 286 11.3 22.5 0.00 0.33 0.33 61 1021.5
20260905130728 22 262 11.3 22.5 0.00 0.33 0.33 61 1021.5
20260905130701 22 266 11.3 22.5 0.00 0.33 0.33 61 1021.5
20260905130622 22 274 11.3 22.5 0.00 0.33 0.33 60 1021.3
20260905130522 22 260 11.3 22.5 0.00 0.33 0.33 60 1021.3
20260905130422 22 246 11.3 22.5 0.00 0.33 0.33 61 1021.2
20260905130322 22 252 11.3 22.5 0.00 0.33 0.33 59 1021.5
20260905130221 22 262 9.7 22.5 0.00 0.33 0.33 60 1021.5
20260905130201 22 252 9.7 22.5 0.00 0.33 0.33 60 1021.5
20260905130118 22 266 9.7 22.5 0.00 0.33 0.33 61 1021.3
20260905130019 22 262 8.0 22.5 0.00 0.33 0.33 60 1021.2
20260905125917 22 296 8.0 17.7 0.00 0.33 0.33 60 1021.3
20260905125817 22 249 8.0 17.7 0.00 0.33 0.33 60 1021.3
20260905125716 22 244 8.0 16.1 0.00 0.33 0.33 61 1021.3
20260905125701 22 256 8.0 16.1 0.00 0.33 0.33 61 1021.3
20260905125610 22 237 8.0 14.5 0.00 0.33 0.33 61 1021.3
20260905125511 22 236 8.0 14.5 0.00 0.33 0.33 64 1021.5
20260905125410 22 244 8.0 14.5 0.00 0.33 0.33 65 1021.3
20260905125310 22 246 8.0 14.5 0.00 0.33 0.33 64 1021.3
20260905125201 22 257 8.0 14.5 0.00 0.33 0.33 67 1021.3
20260905125104 22 305 8.0 16.1 0.00 0.33 0.33 67 1021.3
20260905125004 22 273 9.7 16.1 0.00 0.33 0.33 67 1021.3
20260905124904 22 319 9.7 16.1 0.00 0.33 0.33 67 1021.3
20260905124805 22 267 9.7 16.1 0.00 0.33 0.33 67 1021.3
20260905124705 22 263 9.7 16.1 0.00 0.33 0.33 67 1021.3
20260905124700 22 274 9.7 16.1 0.00 0.33 0.33 67 1021.3
20260905124604 21 289 9.7 16.1 0.00 0.33 0.33 68 1021.5
20260905124501 21 235 11.3 19.3 0.00 0.33 0.33 68 1021.3
20260905124402 21 200 11.3 19.3 0.00 0.33 0.33 69 1021.5
20260905124301 21 223 11.3 19.3 0.00 0.33 0.33 68 1021.5
20260905124201 21 263 11.3 19.3 0.00 0.33 0.33 67 1021.6
20260905124152 21 243 11.3 19.3 0.00 0.33 0.33 67 1021.6
20260905124146 21 275 11.3 19.3 0.00 0.33 0.33 68 1021.5
20260905124142 21 227 11.3 19.3 0.00 0.33 0.33 69 1021.6
20260905123921 21 279 11.3 19.3 0.00 0.33 0.33 68 1021.6
20260905123917 21 277 11.3 19.3 0.00 0.33 0.33 68 1021.6
20260905123913 21 243 11.3 19.3 0.00 0.33 0.33 67 1021.6
20260905123601 21 219 9.7 19.3 0.00 0.33 0.33 69 1021.6
20260905123501 21 213 9.7 17.7 0.00 0.33 0.33 68 1021.5
20260905123401 21 277 9.7 17.7 0.00 0.33 0.33 69 1021.6
20260905123301 21 266 8.0 17.7 0.00 0.33 0.33 69 1021.6
20260905123200 21 256 8.0 14.5 0.00 0.33 0.33 69 1021.5
20260905123101 21 265 8.0 14.5 0.00 0.33 0.33 70 1021.6
20260905123001 21 235 8.0 16.1 0.00 0.33 0.33 70 1021.6
20260905122900 21 278 8.0 16.1 0.00 0.33 0.33 71 1021.5
20260905122801 21 267 8.0 16.1 0.00 0.33 0.33 72 1021.6
20260905122701 21 237 8.0 17.7 0.00 0.33 0.33 72 1021.6
20260905122601 21 286 8.0 17.7 0.00 0.33 0.33 73 1021.6
20260905122501 21 227 9.7 17.7 0.00 0.33 0.33 72 1021.6
20260905122401 21 221 9.7 19.3 0.00 0.33 0.33 74 1021.6
20260905122301 20 271 9.7 19.3 0.00 0.33 0.33 74 1021.5
20260905122201 20 254 9.7 19.3 0.00 0.33 0.33 74 1021.5
20260905122101 20 267 9.7 19.3 0.00 0.33 0.33 72 1021.5
20260905122001 20 271 9.7 19.3 0.00 0.33 0.33 71 1021.5
20260905121901 20 258 9.7 19.3 0.00 0.33 0.33 72 1021.6
20260905121802 20 279 9.7 19.3 0.00 0.33 0.33 73 1021.6
20260905121700 20 256 9.7 19.3 0.00 0.33 0.33 73 1021.5
20260905121600 20 259 9.7 19.3 0.00 0.33 0.33 73 1021.6
20260905121501 20 233 9.7 19.3 0.00 0.33 0.33 73 1021.5
20260905121401 20 271 8.0 17.7 0.00 0.33 0.33 74 1021.5
20260905121301 20 266 8.0 17.7 0.00 0.33 0.33 76 1021.5
20260905121201 20 247 8.0 17.7 0.00 0.33 0.33 75 1021.6
20260905121101 20 225 8.0 17.7 0.00 0.33 0.33 76 1021.5
20260905121001 20 291 6.4 17.7 0.00 0.33 0.33 76 1021.5
20260905120901 20 251 6.4 14.5 0.00 0.33 0.33 76 1021.6
20260905120801 20 263 6.4 14.5 0.00 0.33 0.33 77 1021.6
20260905120701 20 229 6.4 14.5 0.00 0.33 0.33 77 1021.6
20260905120601 20 263 6.4 14.5 0.00 0.33 0.33 77 1021.6
20260905120501 20 273 6.4 14.5 0.00 0.33 0.33 78 1021.6
20260905120401 20 284 6.4 14.5 0.00 0.33 0.33 79 1021.6
20260905120302 20 216 6.4 14.5 0.00 0.33 0.33 77 1021.6
20260905120200 20 254 6.4 14.5 0.00 0.33 0.33 78 1021.6
20260905120001 19 222 6.4 14.5 0.00 0.33 0.33 78 1021.6
20260905115901 19 225 6.4 14.5 0.00 0.33 0.33 77 1021.6
20260905115801 19 219 6.4 14.5 0.00 0.33 0.33 77 1021.6
20260905115701 19 217 8.0 16.1 0.00 0.33 0.33 77 1021.6
20260905115601 19 282 8.0 17.7 0.00 0.33 0.33 78 1021.6
20260905115500 19 300 8.0 17.7 0.00 0.33 0.33 78 1021.6
20260905115401 19 255 8.0 17.7 0.00 0.33 0.33 79 1021.7
20260905115300 19 244 8.0 17.7 0.00 0.33 0.33 78 1021.6
20260905115200 19 285 8.0 17.7 0.00 0.33 0.33 78 1021.7
20260905115100 19 257 8.0 17.7 0.00 0.33 0.33 77 1021.7
20260905115001 19 262 9.7 17.7 0.00 0.33 0.33 77 1021.7
20260905114920 19 265 9.7 17.7 0.00 0.33 0.33 78 1021.7
20260905114916 19 277 9.7 17.7 0.00 0.33 0.33 81 1021.7
20260905114912 19 248 8.0 17.7 0.00 0.33 0.33 80 1021.7
20260905114601 19 265 8.0 17.7 0.00 0.33 0.33 80 1021.6
20260905114503 18 203 8.0 17.7 0.00 0.33 0.33 81 1021.7
20260905114401 18 240 8.0 17.7 0.00 0.33 0.33 81 1021.7
20260905114301 18 228 8.0 17.7 0.00 0.33 0.33 82 1021.7
20260905114201 18 202 8.0 17.7 0.00 0.33 0.33 81 1021.7
20260905114101 18 233 8.0 17.7 0.00 0.33 0.33 82 1021.8
20260905114001 18 240 8.0 17.7 0.00 0.33 0.33 82 1021.8
20260905113905 18 213 8.0 14.5 0.00 0.33 0.33 84 1021.8
20260905113802 18 222 6.4 14.5 0.00 0.33 0.33 84 1021.8
20260905113701 18 212 6.4 14.5 0.00 0.33 0.33 83 1021.8
20260905113601 18 252 6.4 14.5 0.00 0.33 0.33 83 1021.8
20260905113501 18 246 6.4 12.9 0.00 0.33 0.33 84 1021.7
20260905113401 18 279 6.4 12.9 0.00 0.33 0.33 85 1021.8
20260905113301 18 218 6.4 12.9 0.00 0.33 0.33 84 1021.7
20260905113200 18 202 6.4 12.9 0.00 0.33 0.33 85 1021.8
20260905113100 18 266 6.4 12.9 0.00 0.33 0.33 85 1021.8
20260905113000 18 297 6.4 12.9 0.00 0.33 0.33 85 1021.8
20260905112901 18 242 6.4 12.9 0.00 0.33 0.33 85 1021.7
20260905112800 18 244 6.4 12.9 0.00 0.33 0.33 86 1021.7
20260905112700 18 248 6.4 12.9 0.00 0.33 0.33 85 1021.7
20260905112601 17 229 6.4 12.9 0.00 0.33 0.33 85 1021.7
20260905112501 17 258 6.4 12.9 0.00 0.33 0.33 86 1021.7
20260905112401 17 247 6.4 12.9 0.00 0.33 0.33 87 1021.8
20260905112300 17 241 6.4 14.5 0.00 0.33 0.33 85 1021.7
20260905112201 17 228 6.4 14.5 0.00 0.33 0.33 85 1021.8
20260905112056 17 281 8.0 14.5 0.00 0.33 0.33 85 1021.7
20260905111956 17 300 8.0 17.7 0.00 0.33 0.33 86 1021.7
20260905111856 17 300 9.7 17.7 0.00 0.33 0.33 86 1021.7
20260905111756 17 298 9.7 17.7 0.00 0.33 0.33 86 1021.8
20260905111654 17 284 9.7 17.7 0.00 0.33 0.33 86 1021.7
20260905111548 17 275 9.7 17.7 0.03 0.33 0.33 86 1021.8
20260905111447 17 234 9.7 17.7 0.03 0.33 0.33 85 1021.7
20260905111418 17 246 11.3 17.7 0.03 0.33 0.33 85 1021.8
20260905111413 17 261 9.7 17.7 0.03 0.33 0.33 85 1021.7
20260905111403 17 233 11.3 17.7 0.03 0.33 0.33 85 1021.8
20260905111148 17 260 11.3 17.7 0.03 0.33 0.33 85 1021.8
20260905111044 17 247 9.7 17.7 0.03 0.33 0.33 85 1021.8
20260905110943 17 254 9.7 17.7 0.03 0.33 0.33 87 1021.7
20260905110846 17 275 9.7 17.7 0.03 0.33 0.33 86 1021.8
20260905110744 17 273 9.7 17.7 0.03 0.33 0.33 86 1021.7
20260905110641 17 265 9.7 17.7 0.03 0.33 0.33 87 1021.7
20260905110538 17 230 9.7 17.7 0.03 0.33 0.33 88 1021.8
20260905110436 17 286 9.7 17.7 0.03 0.33 0.33 87 1021.7
20260905110418 17 234 6.4 14.5 0.03 0.33 0.33 87 1021.7
20260905110407 17 312 8.0 17.7 0.03 0.33 0.33 88 1021.7
20260905110403 17 236 8.0 17.7 0.03 0.33 0.33 88 1021.8
20260905110136 17 198 6.4 14.5 0.03 0.33 0.33 87 1021.7
20260905110030 17 223 6.4 14.5 0.03 0.33 0.33 88 1021.7
20260905105929 16 210 6.4 14.5 0.03 0.33 0.33 90 1021.6
20260905105830 16 230 6.4 12.9 0.03 0.33 0.33 89 1021.7
20260905105730 16 269 4.8 11.3 0.03 0.33 0.33 89 1021.6
20260905105652 16 284 4.8 11.3 0.03 0.33 0.33 89 1021.6
20260905105629 16 267 4.8 11.3 0.03 0.33 0.33 89 1021.6
20260905105530 16 287 4.8 11.3 0.03 0.33 0.33 88 1021.6
20260905105430 16 278 4.8 11.3 0.03 0.33 0.33 88 1021.6
20260905105330 16 225 4.8 11.3 0.03 0.33 0.33 88 1021.6
20260905105230 16 242 4.8 11.3 0.03 0.33 0.33 88 1021.6
20260905105152 16 224 4.8 11.3 0.03 0.33 0.33 88 1021.6
20260905105130 16 224 4.8 11.3 0.03 0.33 0.33 89 1021.6
20260905105029 16 223 4.8 11.3 0.03 0.33 0.33 89 1021.6
20260905104930 16 265 3.2 9.7 0.03 0.33 0.33 89 1021.6
20260905104830 16 246 3.2 9.7 0.03 0.33 0.33 89 1021.6
20260905104730 16 227 3.2 9.7 0.03 0.33 0.33 89 1021.6
20260905104629 16 225 3.2 9.7 0.03 0.33 0.33 89 1021.6
20260905104529 16 225 3.2 9.7 0.03 0.33 0.33 88 1021.6
20260905104429 16 198 3.2 9.7 0.05 0.33 0.33 88 1021.6
20260905104329 16 195 3.2 9.7 0.05 0.33 0.33 89 1021.6
20260905104230 16 205 3.2 8.0 0.05 0.33 0.33 89 1021.6
20260905104150 16 223 3.2 8.0 0.05 0.33 0.33 89 1021.6
20260905104129 16 227 3.2 8.0 0.05 0.33 0.33 89 1021.6
20260905104029 16 296 3.2 8.0 0.05 0.33 0.33 89 1021.7
20260905103929 16 296 3.2 8.0 0.05 0.33 0.33 90 1021.7
20260905103915 16 234 3.2 8.0 0.05 0.33 0.33 90 1021.7
20260905103906 16 241 3.2 6.4 0.05 0.33 0.33 90 1021.7
20260905103902 16 241 3.2 8.0 0.05 0.33 0.33 90 1021.7
20260905103628 16 254 3.2 8.0 0.05 0.33 0.33 90 1021.7
20260905103526 16 209 3.2 8.0 0.05 0.33 0.33 90 1021.7
20260905103424 16 208 3.2 8.0 0.05 0.33 0.33 90 1021.6
20260905103415 16 208 3.2 9.7 0.05 0.33 0.33 89 1021.6
20260905103406 16 208 3.2 8.0 0.05 0.33 0.33 90 1021.6
20260905103402 16 208 3.2 9.7 0.05 0.33 0.33 89 1021.6
20260905103120 16 208 3.2 9.7 0.05 0.33 0.33 89 1021.6
20260905103020 16 208 3.2 9.7 0.05 0.33 0.33 90 1021.6
20260905102917 16 208 3.2 9.7 0.05 0.33 0.33 90 1021.5
20260905102913 16 208 3.2 9.7 0.05 0.33 0.33 90 1021.5
20260905102903 16 208 3.2 9.7 0.05 0.33 0.33 90 1021.5
20260905102859 16 208 3.2 9.7 0.05 0.33 0.33 90 1021.5
20260905102612 16 208 4.8 9.7 0.05 0.33 0.33 90 1021.5
20260905102511 16 208 4.8 9.7 0.05 0.33 0.33 90 1021.5
20260905102415 16 213 4.8 11.3 0.05 0.33 0.33 90 1021.3
20260905102411 16 207 4.8 9.7 0.05 0.33 0.33 90 1021.3
20260905102402 16 208 4.8 9.7 0.05 0.33 0.33 89 1021.3
20260905102358 16 213 4.8 11.3 0.05 0.33 0.33 90 1021.3
20260905102108 16 209 4.8 11.3 0.05 0.33 0.33 90 1021.3
20260905102007 16 216 4.8 11.3 0.05 0.33 0.33 90 1021.3
20260905101905 16 216 4.8 11.3 0.05 0.33 0.33 90 1021.3
20260905101801 16 216 6.4 11.3 0.08 0.33 0.33 90 1021.3
20260905101646 16 215 6.4 11.3 0.08 0.33 0.33 90 1021.3
20260905101600 16 214 6.4 11.3 0.08 0.33 0.33 90 1021.3
20260905101500 16 205 6.4 11.3 0.08 0.33 0.33 90 1021.5
20260905101400 15 212 6.4 11.3 0.10 0.33 0.33 90 1021.3
20260905101254 15 254 6.4 11.3 0.10 0.33 0.33 90 1021.3
20260905101146 15 227 6.4 11.3 0.13 0.33 0.33 90 1021.3
20260905101054 15 212 6.4 12.9 0.13 0.33 0.33 90 1021.3
20260905100954 15 211 4.8 12.9 0.13 0.33 0.33 91 1021.3
20260905100854 15 224 4.8 12.9 0.13 0.33 0.33 91 1021.3
20260905100748 15 229 4.8 12.9 0.13 0.33 0.33 91 1021.2
20260905100643 15 211 4.8 12.9 0.13 0.33 0.33 91 1021.2
20260905100547 15 232 4.8 12.9 0.13 0.33 0.33 91 1021.2
20260905100447 15 212 4.8 12.9 0.13 0.33 0.33 91 1021.3
20260905100347 15 223 4.8 12.9 0.13 0.33 0.33 91 1021.3
20260905100246 15 229 4.8 12.9 0.13 0.33 0.33 91 1021.3
20260905100143 15 242 3.2 12.9 0.13 0.33 0.33 91 1021.3
20260905100045 15 259 3.2 9.7 0.13 0.33 0.33 91 1021.3
20260905095946 15 293 3.2 9.7 0.13 0.33 0.33 91 1021.5
20260905095846 15 234 3.2 9.7 0.13 0.33 0.33 92 1021.5
20260905095745 15 234 3.2 9.7 0.13 0.33 0.33 92 1021.3
20260905095644 15 242 3.2 9.7 0.13 0.33 0.33 92 1021.3
20260905095544 15 200 3.2 9.7 0.15 0.33 0.33 92 1021.3
20260905095442 15 185 1.6 8.0 0.15 0.33 0.33 92 1021.3
20260905095342 15 184 1.6 8.0 0.15 0.33 0.33 92 1021.3
20260905095242 15 184 3.2 8.0 0.15 0.33 0.33 92 1021.3
20260905095142 15 184 1.6 8.0 0.15 0.33 0.33 91 1021.3
20260905095040 15 183 1.6 8.0 0.15 0.33 0.33 91 1021.3
20260905094940 15 127 1.6 8.0 0.15 0.33 0.33 92 1021.3
20260905094840 15 123 1.6 8.0 0.15 0.33 0.33 91 1021.2
20260905094740 15 123 1.6 8.0 0.15 0.33 0.33 91 1021.2
20260905094640 15 123 1.6 8.0 0.15 0.33 0.33 91 1021.2
20260905094540 15 127 1.6 8.0 0.15 0.33 0.30 91 1021.3
20260905094439 15 127 1.6 8.0 0.13 0.30 0.30 91 1021.2
20260905094402 15 127 1.6 8.0 0.13 0.30 0.30 91 1021.2
20260905094354 15 98 1.6 6.4 0.13 0.30 0.30 92 1021.2
20260905094350 15 100 1.6 6.4 0.13 0.30 0.30 91 1021.2
20260905094036 15 100 3.2 6.4 0.13 0.30 0.30 91 1021.3
20260905093934 15 101 3.2 14.5 0.13 0.30 0.30 91 1021.5
20260905093834 15 101 3.2 14.5 0.13 0.30 0.30 91 1021.5
20260905093734 15 101 4.8 14.5 0.13 0.30 0.30 91 1021.3
20260905093634 15 95 4.8 14.5 0.13 0.30 0.30 90 1021.3
20260905093532 15 105 4.8 14.5 0.13 0.30 0.30 90 1021.3
20260905093432 15 104 4.8 14.5 0.13 0.30 0.30 90 1021.2
20260905093350 15 148 4.8 12.9 0.13 0.30 0.30 90 1021.3
20260905093346 15 101 4.8 14.5 0.13 0.30 0.30 91 1021.2
20260905093338 15 90 4.8 14.5 0.13 0.30 0.30 91 1021.1
20260905093329 15 125 4.8 14.5 0.13 0.30 0.30 90 1021.3
20260905093114 15 134 4.8 14.5 0.13 0.30 0.30 90 1021.3
20260905093110 15 110 4.8 14.5 0.13 0.30 0.30 90 1021.3
20260905092854 15 142 4.8 12.9 0.13 0.30 0.30 90 1021.3
20260905092847 15 147 4.8 12.9 0.13 0.30 0.30 90 1021.5
20260905092632 15 148 4.8 12.9 0.13 0.30 0.30 90 1021.3
20260905092532 15 150 4.8 12.9 0.13 0.30 0.30 90 1021.5
20260905092432 15 127 4.8 12.9 0.13 0.30 0.30 90 1021.5
20260905092330 15 116 4.8 12.9 0.13 0.30 0.28 90 1021.5
20260905092230 15 144 4.8 11.3 0.10 0.28 0.28 90 1021.3
20260905092130 15 109 4.8 11.3 0.10 0.28 0.28 90 1021.3
20260905092030 15 167 4.8 11.3 0.13 0.28 0.28 90 1021.3
20260905091929 15 167 4.8 11.3 0.13 0.28 0.25 90 1021.3
20260905091900 15 128 6.4 11.3 0.13 0.23 0.23 89 1021.6
20260905091855 15 124 4.8 11.3 0.10 0.25 0.25 90 1021.3
20260905091847 15 132 4.8 11.3 0.13 0.25 0.23 89 1021.5
20260905091630 15 128 6.4 11.3 0.13 0.23 0.23 89 1021.6
20260905091530 15 128 6.4 11.3 0.15 0.23 0.23 89 1021.3
20260905091430 15 104 6.4 11.3 0.15 0.23 0.23 89 1021.3
20260905091401 15 169 4.8 11.3 0.15 0.20 0.20 89 1021.5
20260905091329 15 132 6.4 11.3 0.15 0.23 0.23 89 1021.5
20260905091229 15 168 6.4 11.3 0.15 0.23 0.20 89 1021.6
20260905091201 15 151 4.8 11.3 0.15 0.20 0.20 89 1021.5
20260905091029 15 146 4.8 11.3 0.15 0.20 0.20 89 1021.5
20260905090929 15 142 4.8 11.3 0.18 0.20 0.20 89 1021.3
20260905090830 15 116 4.8 11.3 0.18 0.20 0.20 89 1021.3
20260905090729 15 159 4.8 11.3 0.18 0.20 0.20 89 1021.3
20260905090634 15 144 4.8 11.3 0.18 0.20 0.20 89 1021.3
20260905090629 15 140 4.8 11.3 0.18 0.20 0.20 89 1021.3
20260905090529 15 136 4.8 11.3 0.18 0.20 0.20 89 1021.2
20260905090429 15 156 3.2 9.7 0.18 0.20 0.20 89 1021.2
20260905090329 15 132 3.2 9.7 0.18 0.20 0.20 89 1021.2
20260905090229 15 172 3.2 9.7 0.18 0.20 0.20 88 1021.2
20260905090124 15 153 3.2 9.7 0.18 0.20 0.20 88 1021.2
20260905090024 15 155 3.2 9.7 0.18 0.20 0.20 89 1021.1
20260905085924 15 128 3.2 9.7 0.18 0.20 0.20 89 1021.0
20260905085824 15 126 3.2 8.0 0.18 0.20 0.20 89 1021.0
20260905085723 15 123 3.2 8.0 0.18 0.20 0.20 89 1021.1
20260905085624 15 135 3.2 12.9 0.18 0.20 0.18 89 1021.1